M I D A S
Marine Information and Data Acquisition System
Tripno 2052 of the Zeeleeuw from 2011-03-03 08:36:30 to 2011-03-03 15:11:51
Back to CruiseResearch ActivitiesStationsMapUnderway DataData graphs

EquipmentUnitsComment
TimeDGPSUTC
LatitudeDGPSDM.mWGS84
LongitudeDGPSDM.mWGS84
TemperatureSBE03/SBE38deg celciusITS90
ConductivitySBE21S/mITS90
SalinitySBE21 Practical Salinity Units
ChlorophylAChelsea fluorimeterg/lCalibrated in Aceton
Missing or incorrect values are displayed as -999
Sea surface data collected by the RV Zeeleeuw from 2011-03-03 03:43:50 to 2011-03-03 15:19:15
                                                                                    Next 1000 lines
Time Latitude Longitude Temperature Conductivity Salinity ChlorophylA
2011-03-03 03:44:00 51°13.661 2°55.958 12.2912 0.093194 0.528648 -3.020363
2011-03-03 03:44:05 51°13.661 2°55.957 12.2884 0.093194 0.528648 -3.020363
2011-03-03 03:44:10 51°13.661 2°55.957 12.2895 0.093194 0.528648 -3.020363
2011-03-03 03:44:15 51°13.661 2°55.957 12.2876 0.093194 0.528648 -3.020363
2011-03-03 03:44:20 51°13.661 2°55.958 12.2884 0.093194 0.528648 -3.020363
2011-03-03 03:44:25 51°13.661 2°55.958 12.2855 0.093194 0.528648 -3.020363
2011-03-03 03:44:30 51°13.661 2°55.958 12.2845 0.093194 0.528639 -3.020363
2011-03-03 03:44:35 51°13.661 2°55.958 12.2865 0.093194 0.528648 -3.020363
2011-03-03 03:44:40 51°13.661 2°55.958 12.2837 0.093194 0.528639 -3.020363
2011-03-03 03:44:45 51°13.661 2°55.958 12.2838 0.093194 0.528639 -3.020363
2011-03-03 03:44:50 51°13.661 2°55.958 12.2802 0.093194 0.528639 -3.020363
2011-03-03 03:44:55 51°13.661 2°55.958 12.2793 0.093194 0.528639 -3.020363
2011-03-03 03:45:00 51°13.662 2°55.958 12.2761 0.093194 0.528639 -3.020363
2011-03-03 03:45:05 51°13.662 2°55.958 12.2677 0.093194 0.528639 -3.020363
2011-03-03 03:45:10 51°13.662 2°55.958 12.2619 0.093194 0.528629 -3.020363
2011-03-03 03:45:15 51°13.662 2°55.958 12.2613 0.093194 0.528629 -3.020363
2011-03-03 03:45:20 51°13.662 2°55.958 12.2583 0.093194 0.528629 -3.020363
2011-03-03 03:45:25 51°13.662 2°55.958 12.2643 0.093194 0.528629 -3.020363
2011-03-03 03:45:30 51°13.662 2°55.958 12.264 0.093194 0.528629 -3.020363
2011-03-03 03:45:35 51°13.662 2°55.958 12.267 0.093194 0.528629 -3.020363
2011-03-03 03:45:40 51°13.661 2°55.958 12.2674 0.093194 0.528629 -3.020363
2011-03-03 03:45:45 51°13.661 2°55.958 12.2659 0.093194 0.528629 -3.020363
2011-03-03 03:45:50 51°13.661 2°55.958 12.2641 0.093194 0.528629 -3.020363
2011-03-03 03:45:55 51°13.661 2°55.958 12.2662 0.093194 0.528629 -3.020363
2011-03-03 03:46:00 51°13.662 2°55.958 12.2656 0.093194 0.528619 -3.020363
2011-03-03 03:46:05 51°13.662 2°55.958 12.2683 0.093194 0.528619 -3.020363
2011-03-03 03:46:10 51°13.661 2°55.958 12.2688 0.093194 0.528619 -3.020363
2011-03-03 03:46:15 51°13.661 2°55.958 12.2724 0.093194 0.528619 -3.020363
2011-03-03 03:46:20 51°13.661 2°55.958 12.2713 0.093194 0.528619 -3.020363
2011-03-03 03:46:25 51°13.662 2°55.958 12.2732 0.093194 0.528619 -3.020363
2011-03-03 03:46:30 51°13.661 2°55.958 12.2728 0.093194 0.528619 -3.020363
2011-03-03 03:46:35 51°13.662 2°55.958 12.2755 0.093194 0.528619 -3.020363
2011-03-03 03:46:40 51°13.662 2°55.959 12.2781 0.093194 0.528619 -3.020363
2011-03-03 03:46:45 51°13.662 2°55.959 12.2779 0.093194 0.528619 -3.020363
2011-03-03 03:46:50 51°13.662 2°55.959 12.2782 0.093194 0.528619 -3.020363
2011-03-03 03:46:55 51°13.662 2°55.959 12.2805 0.093194 0.528619 -3.020363
2011-03-03 03:47:00 51°13.661 2°55.959 12.2826 0.093194 0.528629 -3.020363
2011-03-03 03:47:05 51°13.661 2°55.959 12.2838 0.093194 0.528629 -3.020363
2011-03-03 03:47:10 51°13.662 2°55.959 12.2885 0.093194 0.528629 -3.020363
2011-03-03 03:47:15 51°13.661 2°55.958 12.2882 0.093194 0.528629 -3.020363
2011-03-03 03:47:20 51°13.661 2°55.958 12.2886 0.093194 0.528619 -3.020363
2011-03-03 03:47:25 51°13.661 2°55.958 12.2874 0.093194 0.528629 -3.020363
2011-03-03 03:47:30 51°13.661 2°55.958 12.2859 0.093194 0.528619 -3.020363
2011-03-03 03:47:35 51°13.661 2°55.958 12.2825 0.093194 0.528619 -3.020363
2011-03-03 03:47:40 51°13.661 2°55.958 12.2845 0.093194 0.528619 -3.020363
2011-03-03 03:47:45 51°13.661 2°55.958 12.286 0.093194 0.528619 -3.020363
2011-03-03 03:47:50 51°13.661 2°55.958 12.2852 0.093194 0.528619 -3.020363
2011-03-03 03:47:55 51°13.661 2°55.958 12.2839 0.093194 0.528619 -3.020363
2011-03-03 03:48:00 51°13.661 2°55.958 12.2849 0.093194 0.528619 -3.020363
2011-03-03 03:48:05 51°13.66 2°55.958 12.2836 0.093194 0.528619 -3.020363
2011-03-03 03:48:10 51°13.66 2°55.958 12.2831 0.093194 0.528619 -3.020363
2011-03-03 03:48:15 51°13.661 2°55.958 12.2802 0.093194 0.528619 -3.020363
2011-03-03 03:48:20 51°13.661 2°55.958 12.2804 0.093194 0.528619 -3.020363
2011-03-03 03:48:25 51°13.661 2°55.958 12.2811 0.093194 0.528619 -3.020363
2011-03-03 03:48:30 51°13.661 2°55.958 12.2815 0.093194 0.528619 -3.020363
2011-03-03 03:48:35 51°13.661 2°55.958 12.282 0.093194 0.528619 -3.020363
2011-03-03 03:48:40 51°13.661 2°55.958 12.2808 0.093194 0.528619 -3.020363
2011-03-03 03:48:45 51°13.661 2°55.958 12.2851 0.093194 0.528619 -3.020363
2011-03-03 03:48:50 51°13.661 2°55.958 12.2846 0.093194 0.528619 -3.020363
2011-03-03 03:48:55 51°13.661 2°55.958 12.2818 0.093194 0.528619 -3.020363
2011-03-03 03:49:00 51°13.661 2°55.958 12.2828 0.093194 0.528619 -3.020363
2011-03-03 03:49:05 51°13.661 2°55.958 12.2791 0.093194 0.528619 -3.020363
2011-03-03 03:49:10 51°13.662 2°55.958 12.2786 0.093194 0.528609 -3.020363
2011-03-03 03:49:15 51°13.662 2°55.958 12.2746 0.093194 0.528609 -3.020363
2011-03-03 03:49:20 51°13.662 2°55.958 12.2761 0.093194 0.528609 -3.020363
2011-03-03 03:49:25 51°13.662 2°55.958 12.2746 0.093194 0.528609 -3.020363
2011-03-03 03:49:30 51°13.662 2°55.958 12.2779 0.093194 0.528609 -3.020363
2011-03-03 03:49:35 51°13.662 2°55.958 12.2774 0.093194 0.528609 -3.020363
2011-03-03 03:49:40 51°13.662 2°55.958 12.2772 0.093194 0.528609 -3.020363
2011-03-03 03:49:45 51°13.662 2°55.958 12.2781 0.093194 0.528609 -3.020363
2011-03-03 03:49:50 51°13.662 2°55.958 12.2756 0.093194 0.528609 -3.020363
2011-03-03 03:49:55 51°13.662 2°55.958 12.2762 0.093194 0.528609 -3.020363
2011-03-03 03:50:00 51°13.662 2°55.958 12.2748 0.093194 0.528609 -3.020363
2011-03-03 03:50:05 51°13.662 2°55.958 12.2776 0.093194 0.5286 -3.020363
2011-03-03 03:50:10 51°13.662 2°55.958 12.2734 0.093194 0.528609 -3.020363
2011-03-03 03:50:15 51°13.662 2°55.958 12.2732 0.093194 0.528609 -3.020363
2011-03-03 03:50:20 51°13.662 2°55.958 12.276 0.093194 0.5286 -3.020363
2011-03-03 03:50:25 51°13.662 2°55.958 12.2737 0.093194 0.528609 -3.020363
2011-03-03 03:50:30 51°13.662 2°55.958 12.2735 0.093194 0.5286 -3.020363
2011-03-03 03:50:35 51°13.662 2°55.958 12.2764 0.093194 0.528609 -3.020363
2011-03-03 03:50:40 51°13.662 2°55.958 12.2773 0.093194 0.528609 -3.020363
2011-03-03 03:50:45 51°13.662 2°55.958 12.2782 0.093194 0.528609 -3.020363
2011-03-03 03:50:50 51°13.662 2°55.958 12.2778 0.093194 0.528609 -3.020363
2011-03-03 03:50:55 51°13.662 2°55.958 12.2786 0.093194 0.528609 -3.020363
2011-03-03 03:51:00 51°13.662 2°55.958 12.2807 0.093194 0.528609 -3.020363
2011-03-03 03:51:05 51°13.662 2°55.958 12.2794 0.093194 0.5286 -3.020363
2011-03-03 03:51:10 51°13.662 2°55.958 12.28 0.093194 0.528609 -3.020363
2011-03-03 03:51:15 51°13.662 2°55.958 12.2804 0.093194 0.528609 -3.020363
2011-03-03 03:51:20 51°13.662 2°55.958 12.2849 0.093194 0.5286 -3.020363
2011-03-03 03:51:25 51°13.662 2°55.958 12.2819 0.093194 0.5286 -3.020363
2011-03-03 03:51:30 51°13.662 2°55.958 12.2814 0.093194 0.5286 -3.020363
2011-03-03 03:51:35 51°13.662 2°55.958 12.2845 0.093194 0.528609 -3.020363
2011-03-03 03:51:40 51°13.662 2°55.958 12.2832 0.093194 0.528609 -3.020363
2011-03-03 03:51:45 51°13.662 2°55.958 12.2853 0.093194 0.528609 -3.020363
2011-03-03 03:51:50 51°13.662 2°55.958 12.2814 0.093194 0.528609 -3.020363
2011-03-03 03:51:55 51°13.662 2°55.959 12.2818 0.093194 0.5286 -3.020363
2011-03-03 03:52:00 51°13.662 2°55.959 12.2796 0.093194 0.5286 -3.020363
2011-03-03 03:52:05 51°13.662 2°55.959 12.2794 0.093194 0.5286 -3.020363
2011-03-03 03:52:10 51°13.662 2°55.959 12.2751 0.093194 0.5286 -3.020363
2011-03-03 03:52:15 51°13.663 2°55.959 12.2751 0.093194 0.5286 -3.020363
2011-03-03 03:52:20 51°13.663 2°55.959 12.2743 0.093194 0.5286 -3.020363
2011-03-03 03:52:25 51°13.663 2°55.959 12.2752 0.093194 0.5286 -3.020363
2011-03-03 03:52:30 51°13.662 2°55.959 12.2736 0.093194 0.5286 -3.020363
2011-03-03 03:52:35 51°13.662 2°55.959 12.273 0.093194 0.5286 -3.020363
2011-03-03 03:52:40 51°13.662 2°55.959 12.2717 0.093194 0.5286 -3.020363
2011-03-03 03:52:45 51°13.662 2°55.959 12.2694 0.093194 0.5286 -3.020363
2011-03-03 03:52:50 51°13.662 2°55.959 12.2708 0.093194 0.5286 -3.020363
2011-03-03 03:52:55 51°13.662 2°55.959 12.2746 0.093194 0.52859 -3.020363
2011-03-03 03:53:00 51°13.663 2°55.959 12.2769 0.093194 0.5286 -3.020363
2011-03-03 03:53:05 51°13.663 2°55.959 12.2722 0.093194 0.52859 -3.020363
2011-03-03 03:53:10 51°13.663 2°55.959 12.274 0.093194 0.52859 -3.020363
2011-03-03 03:53:15 51°13.663 2°55.959 12.2709 0.093194 0.52859 -3.020363
2011-03-03 03:53:20 51°13.663 2°55.959 12.2727 0.093194 0.52859 -3.020363
2011-03-03 03:53:25 51°13.663 2°55.959 12.2736 0.093194 0.52859 -3.020363
2011-03-03 03:53:30 51°13.663 2°55.959 12.2745 0.093194 0.52859 -3.020363
2011-03-03 03:53:35 51°13.663 2°55.959 12.2707 0.093297 0.529196 -3.020363
2011-03-03 03:53:40 51°13.663 2°55.959 12.2696 0.093194 0.52859 -3.020363
2011-03-03 03:53:45 51°13.664 2°55.959 12.2711 0.093194 0.52859 -3.020363
2011-03-03 03:53:50 51°13.663 2°55.959 12.272 0.093194 0.52859 -3.020363
2011-03-03 03:53:55 51°13.663 2°55.959 12.2708 0.093297 0.529196 -3.020363
2011-03-03 03:54:00 51°13.663 2°55.959 12.2684 0.093194 0.52859 -3.020363
2011-03-03 03:54:05 51°13.663 2°55.959 12.2689 0.093194 0.52859 -3.020363
2011-03-03 03:54:10 51°13.662 2°55.959 12.2678 0.093194 0.52859 -3.020363
2011-03-03 03:54:15 51°13.663 2°55.959 12.2672 0.093194 0.52859 -3.020363
2011-03-03 03:54:20 51°13.663 2°55.959 12.2653 0.093194 0.52859 -3.020363
2011-03-03 03:54:25 51°13.664 2°55.959 12.2665 0.093194 0.52858 -3.020363
2011-03-03 03:54:30 51°13.663 2°55.959 12.2677 0.093194 0.52858 -3.020363
2011-03-03 03:54:35 51°13.663 2°55.959 12.2697 0.093194 0.52858 -3.020363
2011-03-03 03:54:40 51°13.663 2°55.959 12.2697 0.093194 0.52858 -3.020363
2011-03-03 03:54:45 51°13.663 2°55.959 12.2717 0.093194 0.52858 -3.020363
2011-03-03 03:54:50 51°13.663 2°55.959 12.271 0.093194 0.52858 -3.020363
2011-03-03 03:54:55 51°13.663 2°55.959 12.2678 0.093194 0.52858 -3.020363
2011-03-03 03:55:00 51°13.663 2°55.959 12.2734 0.093194 0.52858 -3.020363
2011-03-03 03:55:05 51°13.663 2°55.959 12.2693 0.093194 0.52858 -3.020363
2011-03-03 03:55:10 51°13.664 2°55.959 12.2738 0.093194 0.52858 -3.020363
2011-03-03 03:55:15 51°13.663 2°55.959 12.2681 0.093194 0.52858 -3.020363
2011-03-03 03:55:20 51°13.663 2°55.959 12.2716 0.093194 0.52858 -3.020363
2011-03-03 03:55:25 51°13.663 2°55.959 12.2687 0.093194 0.52858 -3.020363
2011-03-03 03:55:30 51°13.663 2°55.959 12.2723 0.093194 0.52858 -3.020363
2011-03-03 03:55:35 51°13.663 2°55.959 12.2708 0.093194 0.52858 -3.020363
2011-03-03 03:55:40 51°13.663 2°55.959 12.2732 0.093194 0.52857 -3.020363
2011-03-03 03:55:45 51°13.663 2°55.959 12.2707 0.093194 0.52857 -3.020363
2011-03-03 03:55:50 51°13.663 2°55.959 12.2714 0.093194 0.52858 -3.020363
2011-03-03 03:55:55 51°13.663 2°55.959 12.2697 0.093194 0.52857 -3.020363
2011-03-03 03:56:00 51°13.663 2°55.959 12.2709 0.093194 0.52857 -3.020363
2011-03-03 03:56:05 51°13.663 2°55.959 12.2711 0.093194 0.52857 -3.020363
2011-03-03 03:56:10 51°13.662 2°55.959 12.2742 0.093297 0.529177 -3.020363
2011-03-03 03:56:15 51°13.663 2°55.959 12.2723 0.093297 0.529177 -3.020363
2011-03-03 03:56:20 51°13.663 2°55.959 12.2731 0.093297 0.529177 -3.020363
2011-03-03 03:56:25 51°13.663 2°55.959 12.272 0.093194 0.52857 -3.020363
2011-03-03 03:56:30 51°13.664 2°55.959 12.2716 0.093194 0.52857 -3.020363
2011-03-03 03:56:35 51°13.663 2°55.959 12.2727 0.093194 0.52857 -3.020363
2011-03-03 03:56:40 51°13.663 2°55.959 12.2718 0.093194 0.52857 -3.020363
2011-03-03 03:56:45 51°13.664 2°55.959 12.2705 0.093194 0.52857 -3.020363
2011-03-03 03:56:50 51°13.663 2°55.959 12.2674 0.093194 0.52857 -3.020363
2011-03-03 03:56:55 51°13.663 2°55.959 12.269 0.093194 0.52857 -3.020363
2011-03-03 03:57:00 51°13.663 2°55.959 12.2697 0.093194 0.52856 -3.020363
2011-03-03 03:57:05 51°13.662 2°55.959 12.2694 0.093194 0.52856 -3.020363
2011-03-03 03:57:10 51°13.663 2°55.959 12.2681 0.093194 0.52856 -3.020363
2011-03-03 03:57:15 51°13.662 2°55.959 12.2699 0.093194 0.52856 -3.020363
2011-03-03 03:57:20 51°13.663 2°55.959 12.268 0.093194 0.52856 -3.020363
2011-03-03 03:57:25 51°13.663 2°55.959 12.2692 0.093194 0.52856 -3.020363
2011-03-03 03:57:30 51°13.662 2°55.959 12.2688 0.093194 0.52856 -3.020363
2011-03-03 03:57:35 51°13.663 2°55.959 12.2697 0.093194 0.52856 -3.020363
2011-03-03 03:57:40 51°13.662 2°55.959 12.268 0.093297 0.529167 -3.020363
2011-03-03 03:57:45 51°13.663 2°55.959 12.2691 0.093297 0.529167 -3.020363
2011-03-03 03:57:50 51°13.663 2°55.959 12.2691 0.093194 0.52856 -3.020363
2011-03-03 03:57:55 51°13.662 2°55.959 12.2672 0.093194 0.52856 -3.020363
2011-03-03 03:58:00 51°13.662 2°55.959 12.2661 0.093194 0.52856 -3.020363
2011-03-03 03:58:05 51°13.662 2°55.959 12.2659 0.093194 0.528551 -3.020363
2011-03-03 03:58:10 51°13.663 2°55.959 12.2672 0.093194 0.528551 -3.020363
2011-03-03 03:58:15 51°13.663 2°55.959 12.2671 0.093194 0.528551 -3.020363
2011-03-03 03:58:20 51°13.663 2°55.959 12.2662 0.093194 0.528551 -3.020363
2011-03-03 03:58:25 51°13.663 2°55.959 12.2682 0.093194 0.528551 -3.020363
2011-03-03 03:58:30 51°13.663 2°55.959 12.2668 0.093194 0.528551 -3.020363
2011-03-03 03:58:35 51°13.663 2°55.959 12.2684 0.093194 0.528551 -3.020363
2011-03-03 03:58:40 51°13.663 2°55.959 12.2685 0.093194 0.528551 -3.020363
2011-03-03 03:58:45 51°13.663 2°55.959 12.2698 0.093194 0.528551 -3.020363
2011-03-03 03:58:50 51°13.662 2°55.959 12.271 0.093297 0.529157 -3.020363
2011-03-03 03:58:55 51°13.663 2°55.959 12.2704 0.093194 0.528551 -3.020363
2011-03-03 03:59:00 51°13.662 2°55.959 12.271 0.093194 0.528551 -3.020363
2011-03-03 03:59:05 51°13.662 2°55.959 12.2698 0.093194 0.528551 -3.020363
2011-03-03 03:59:10 51°13.663 2°55.959 12.2686 0.093194 0.528551 -3.020363
2011-03-03 03:59:15 51°13.663 2°55.959 12.2675 0.093194 0.528551 -3.020363
2011-03-03 03:59:20 51°13.662 2°55.959 12.2679 0.093194 0.528551 -3.020363
2011-03-03 03:59:25 51°13.662 2°55.958 12.268 0.093194 0.528551 -3.020363
2011-03-03 03:59:30 51°13.662 2°55.958 12.2679 0.093194 0.528551 -3.020363
2011-03-03 03:59:35 51°13.662 2°55.959 12.2669 0.093194 0.528541 -3.020363
2011-03-03 03:59:40 51°13.662 2°55.958 12.2646 0.093194 0.528541 -3.020363
2011-03-03 03:59:45 51°13.662 2°55.958 12.2644 0.093194 0.528541 -3.020363
2011-03-03 03:59:50 51°13.662 2°55.958 12.2657 0.093194 0.528541 -3.020363
2011-03-03 03:59:55 51°13.662 2°55.959 12.2635 0.093194 0.528541 -3.020363
2011-03-03 04:00:00 51°13.662 2°55.959 12.2599 0.093194 0.528541 -3.020363
2011-03-03 04:00:05 51°13.662 2°55.959 12.2565 0.093194 0.528541 -3.020363
2011-03-03 04:00:10 51°13.662 2°55.959 12.2608 0.093194 0.528541 -3.020363
2011-03-03 04:00:15 51°13.662 2°55.959 12.2581 0.093194 0.528541 -3.020363
2011-03-03 04:00:20 51°13.662 2°55.959 12.256 0.093194 0.528541 -3.020363
2011-03-03 04:00:25 51°13.662 2°55.959 12.2569 0.093194 0.528541 -3.020363
2011-03-03 04:00:30 51°13.662 2°55.959 12.2572 0.093194 0.528541 -3.020363
2011-03-03 04:00:35 51°13.662 2°55.959 12.2546 0.093194 0.528541 -3.020363
2011-03-03 04:00:40 51°13.662 2°55.958 12.2564 0.093194 0.528531 -3.020363
2011-03-03 04:00:45 51°13.662 2°55.959 12.2545 0.093194 0.528531 -3.020363
2011-03-03 04:00:50 51°13.662 2°55.959 12.2549 0.093194 0.528531 -3.020363
2011-03-03 04:00:55 51°13.662 2°55.959 12.2575 0.093194 0.528541 -3.020363
2011-03-03 04:01:00 51°13.662 2°55.959 12.2592 0.093194 0.528541 -3.020363
2011-03-03 04:01:05 51°13.663 2°55.959 12.258 0.093194 0.528531 -3.020363
2011-03-03 04:01:10 51°13.663 2°55.959 12.2598 0.093297 0.529137 -3.020363
2011-03-03 04:01:15 51°13.663 2°55.959 12.2622 0.093297 0.529137 -3.020363
2011-03-03 04:01:20 51°13.663 2°55.959 12.2648 0.093194 0.528541 -3.020363
2011-03-03 04:01:25 51°13.663 2°55.959 12.2638 0.093194 0.528531 -3.020363
2011-03-03 04:01:30 51°13.663 2°55.959 12.2628 0.093194 0.528531 -3.020363
2011-03-03 04:01:35 51°13.664 2°55.959 12.2618 0.093194 0.528531 -3.020363
2011-03-03 04:01:40 51°13.664 2°55.959 12.2605 0.093194 0.528531 -3.020363
2011-03-03 04:01:45 51°13.664 2°55.959 12.2591 0.093194 0.528531 -3.020363
2011-03-03 04:01:50 51°13.664 2°55.959 12.2625 0.093297 0.529137 -3.020363
2011-03-03 04:01:55 51°13.664 2°55.959 12.2601 0.093194 0.528531 -3.020363
2011-03-03 04:02:00 51°13.664 2°55.959 12.2623 0.093194 0.528531 -3.020363
2011-03-03 04:02:05 51°13.664 2°55.959 12.2612 0.093297 0.529137 -3.020363
2011-03-03 04:02:10 51°13.664 2°55.959 12.2622 0.093194 0.528531 -3.020363
2011-03-03 04:02:15 51°13.665 2°55.96 12.2623 0.093194 0.528531 -3.020363
2011-03-03 04:02:20 51°13.665 2°55.96 12.2635 0.093194 0.528531 -3.020363
2011-03-03 04:02:25 51°13.665 2°55.96 12.2632 0.093194 0.528531 -3.020363
2011-03-03 04:02:30 51°13.665 2°55.96 12.2642 0.093194 0.528531 -3.020363
2011-03-03 04:02:35 51°13.665 2°55.96 12.2635 0.093297 0.529137 -3.020363
2011-03-03 04:02:40 51°13.664 2°55.959 12.2632 0.093194 0.528531 -3.020363
2011-03-03 04:02:45 51°13.665 2°55.96 12.2639 0.093194 0.528531 -3.020363
2011-03-03 04:02:50 51°13.665 2°55.96 12.2616 0.093194 0.528531 -3.020363
2011-03-03 04:02:55 51°13.665 2°55.96 12.2629 0.093194 0.528531 -3.020363
2011-03-03 04:03:00 51°13.664 2°55.959 12.2622 0.093194 0.528531 -3.020363
2011-03-03 04:03:05 51°13.664 2°55.959 12.2641 0.093194 0.528531 -3.020363
2011-03-03 04:03:10 51°13.665 2°55.96 12.2635 0.093194 0.528531 -3.020363
2011-03-03 04:03:15 51°13.664 2°55.96 12.2656 0.093194 0.528531 -3.020363
2011-03-03 04:03:20 51°13.664 2°55.96 12.264 0.093194 0.528531 -3.020363
2011-03-03 04:03:25 51°13.664 2°55.96 12.2642 0.093297 0.529137 -3.020363
2011-03-03 04:03:30 51°13.664 2°55.96 12.2638 0.093297 0.529137 -3.020363
2011-03-03 04:03:35 51°13.665 2°55.96 12.263 0.093194 0.528531 -3.020363
2011-03-03 04:03:40 51°13.665 2°55.96 12.2622 0.093194 0.528531 -3.020363
2011-03-03 04:03:45 51°13.664 2°55.96 12.2601 0.093194 0.528531 -3.020363
2011-03-03 04:03:50 51°13.664 2°55.96 12.2585 0.093194 0.528521 -3.020363
2011-03-03 04:03:55 51°13.664 2°55.96 12.2599 0.093194 0.528531 -3.020363
2011-03-03 04:04:00 51°13.664 2°55.96 12.2602 0.093194 0.528531 -3.020363
2011-03-03 04:04:05 51°13.664 2°55.959 12.2617 0.093297 0.529137 -3.020363
2011-03-03 04:04:10 51°13.664 2°55.959 12.2632 0.093194 0.528531 -3.020363
2011-03-03 04:04:15 51°13.664 2°55.96 12.2606 0.093194 0.528531 -3.020363
2011-03-03 04:04:20 51°13.664 2°55.96 12.2636 0.093194 0.528531 -3.020363
2011-03-03 04:04:25 51°13.664 2°55.96 12.26 0.093194 0.528531 -3.020363
2011-03-03 04:04:30 51°13.664 2°55.96 12.2587 0.093297 0.529128 -3.020363
2011-03-03 04:04:35 51°13.664 2°55.959 12.2595 0.093194 0.528521 -3.020363
2011-03-03 04:04:40 51°13.663 2°55.959 12.2558 0.093194 0.528521 -3.020363
2011-03-03 04:04:45 51°13.664 2°55.959 12.2559 0.093194 0.528521 -3.020363
2011-03-03 04:04:50 51°13.664 2°55.96 12.2556 0.093194 0.528521 -3.020363
2011-03-03 04:04:55 51°13.664 2°55.96 12.2558 0.093194 0.528521 -3.020363
2011-03-03 04:05:00 51°13.664 2°55.959 12.2553 0.093194 0.528521 -3.020363
2011-03-03 04:05:05 51°13.664 2°55.96 12.2537 0.093194 0.528521 -3.020363
2011-03-03 04:05:10 51°13.664 2°55.959 12.2473 0.093194 0.528512 -3.020363
2011-03-03 04:05:15 51°13.663 2°55.959 12.2488 0.093194 0.528512 -3.020363
2011-03-03 04:05:20 51°13.664 2°55.959 12.2511 0.093194 0.528521 -3.020363
2011-03-03 04:05:25 51°13.664 2°55.959 12.251 0.093297 0.529128 -3.020363
2011-03-03 04:05:30 51°13.663 2°55.959 12.2534 0.093194 0.528521 -3.020363
2011-03-03 04:05:35 51°13.663 2°55.959 12.2535 0.093297 0.529128 -3.020363
2011-03-03 04:05:40 51°13.664 2°55.959 12.2544 0.093194 0.528521 -3.020363
2011-03-03 04:05:45 51°13.664 2°55.959 12.2585 0.093194 0.528521 -3.020363
2011-03-03 04:05:50 51°13.664 2°55.959 12.2585 0.093194 0.528521 -3.020363
2011-03-03 04:05:55 51°13.663 2°55.959 12.2582 0.093194 0.528521 -3.020363
2011-03-03 04:06:00 51°13.664 2°55.959 12.257 0.093194 0.528521 -3.020363
2011-03-03 04:06:05 51°13.664 2°55.959 12.2566 0.093297 0.529128 -3.020363
2011-03-03 04:06:10 51°13.663 2°55.959 12.2569 0.093194 0.528521 -3.020363
2011-03-03 04:06:15 51°13.663 2°55.959 12.2567 0.093194 0.528521 -3.020363
2011-03-03 04:06:20 51°13.663 2°55.959 12.2576 0.093297 0.529128 -3.020363
2011-03-03 04:06:25 51°13.663 2°55.959 12.2568 0.093194 0.528521 -3.020363
2011-03-03 04:06:30 51°13.663 2°55.959 12.2581 0.093297 0.529118 -3.020363
2011-03-03 04:06:35 51°13.663 2°55.96 12.2587 0.093297 0.529128 -3.020363
2011-03-03 04:06:40 51°13.662 2°55.96 12.2607 0.093297 0.529118 -3.020363
2011-03-03 04:06:45 51°13.663 2°55.96 12.2608 0.093297 0.529118 -3.020363
2011-03-03 04:06:50 51°13.663 2°55.96 12.2619 0.093297 0.529128 -3.020363
2011-03-03 04:06:55 51°13.663 2°55.96 12.262 0.093194 0.528521 -3.020363
2011-03-03 04:07:00 51°13.662 2°55.96 12.2601 0.093194 0.528521 -3.020363
2011-03-03 04:07:05 51°13.663 2°55.96 12.2614 0.093194 0.528512 -3.020363
2011-03-03 04:07:10 51°13.663 2°55.959 12.261 0.093194 0.528521 -3.020363
2011-03-03 04:07:15 51°13.663 2°55.959 12.2615 0.093194 0.528521 -3.020363
2011-03-03 04:07:20 51°13.663 2°55.959 12.2623 0.093194 0.528521 -3.020363
2011-03-03 04:07:25 51°13.663 2°55.959 12.2624 0.093194 0.528512 -3.020363
2011-03-03 04:07:30 51°13.663 2°55.96 12.2613 0.093194 0.528521 -3.020363
2011-03-03 04:07:35 51°13.663 2°55.96 12.2613 0.093194 0.528512 -3.020363
2011-03-03 04:07:40 51°13.663 2°55.959 12.2584 0.093194 0.528512 -3.020363
2011-03-03 04:07:45 51°13.663 2°55.959 12.2611 0.093194 0.528512 -3.020363
2011-03-03 04:07:50 51°13.663 2°55.959 12.2599 0.093194 0.528512 -3.020363
2011-03-03 04:07:55 51°13.663 2°55.959 12.2594 0.093194 0.528512 -3.020363
2011-03-03 04:08:00 51°13.663 2°55.96 12.2599 0.093297 0.529118 -3.020363
2011-03-03 04:08:05 51°13.664 2°55.96 12.26 0.093194 0.528512 -3.020363
2011-03-03 04:08:10 51°13.664 2°55.96 12.2603 0.093194 0.528512 -3.020363
2011-03-03 04:08:15 51°13.664 2°55.96 12.2586 0.093194 0.528512 -3.020363
2011-03-03 04:08:20 51°13.664 2°55.96 12.2598 0.093194 0.528512 -3.020363
2011-03-03 04:08:25 51°13.663 2°55.96 12.2579 0.093194 0.528512 -3.020363
2011-03-03 04:08:30 51°13.664 2°55.96 12.2567 0.093194 0.528512 -3.020363
2011-03-03 04:08:35 51°13.664 2°55.96 12.258 0.093297 0.529118 -3.020363
2011-03-03 04:08:40 51°13.664 2°55.96 12.2601 0.093194 0.528512 -3.020363
2011-03-03 04:08:45 51°13.664 2°55.96 12.2579 0.093194 0.528512 -3.020363
2011-03-03 04:08:50 51°13.664 2°55.96 12.2612 0.093297 0.529108 -3.020363
2011-03-03 04:08:55 51°13.664 2°55.959 12.263 0.093194 0.528502 -3.020363
2011-03-03 04:09:00 51°13.664 2°55.96 12.2634 0.093194 0.528502 -3.020363
2011-03-03 04:09:05 51°13.664 2°55.96 12.2642 0.093194 0.528512 -3.020363
2011-03-03 04:09:10 51°13.664 2°55.96 12.2632 0.093194 0.528512 -3.020363
2011-03-03 04:09:15 51°13.664 2°55.96 12.2654 0.093194 0.528512 -3.020363
2011-03-03 04:09:20 51°13.664 2°55.96 12.2626 0.093194 0.528512 -3.020363
2011-03-03 04:09:25 51°13.665 2°55.96 12.2612 0.093194 0.528502 -3.020363
2011-03-03 04:09:30 51°13.665 2°55.96 12.2617 0.093194 0.528502 -3.020363
2011-03-03 04:09:35 51°13.665 2°55.96 12.2634 0.093194 0.528502 -3.020363
2011-03-03 04:09:40 51°13.665 2°55.96 12.2612 0.093194 0.528502 -3.020363
2011-03-03 04:09:45 51°13.665 2°55.96 12.2599 0.093194 0.528502 -3.020363
2011-03-03 04:09:50 51°13.665 2°55.96 12.2575 0.093194 0.528502 -3.020363
2011-03-03 04:09:55 51°13.665 2°55.959 12.2555 0.093194 0.528502 -3.020363
2011-03-03 04:10:00 51°13.665 2°55.96 12.2564 0.093297 0.529108 -3.020363
2011-03-03 04:10:05 51°13.666 2°55.96 12.2559 0.093194 0.528492 -3.020363
2011-03-03 04:10:10 51°13.665 2°55.959 12.2568 0.093194 0.528502 -3.020363
2011-03-03 04:10:15 51°13.665 2°55.959 12.2563 0.093194 0.528502 -3.020363
2011-03-03 04:10:20 51°13.665 2°55.959 12.2581 0.093194 0.528502 -3.020363
2011-03-03 04:10:25 51°13.665 2°55.959 12.2551 0.093194 0.528502 -3.020363
2011-03-03 04:10:30 51°13.665 2°55.959 12.2575 0.093297 0.529098 -3.020363
2011-03-03 04:10:35 51°13.665 2°55.959 12.2545 0.093194 0.528492 -3.020363
2011-03-03 04:10:40 51°13.665 2°55.959 12.2542 0.093194 0.528492 -3.020363
2011-03-03 04:10:45 51°13.665 2°55.959 12.2549 0.093194 0.528492 -3.020363
2011-03-03 04:10:50 51°13.665 2°55.959 12.2541 0.093194 0.528492 -3.020363
2011-03-03 04:10:55 51°13.665 2°55.959 12.2533 0.093194 0.528492 -3.020363
2011-03-03 04:11:00 51°13.665 2°55.959 12.2552 0.093194 0.528492 -3.020363
2011-03-03 04:11:05 51°13.665 2°55.959 12.256 0.093194 0.528492 -3.020363
2011-03-03 04:11:10 51°13.665 2°55.959 12.2534 0.093194 0.528492 -3.020363
2011-03-03 04:11:15 51°13.665 2°55.959 12.2531 0.093194 0.528492 -3.020363
2011-03-03 04:11:20 51°13.665 2°55.959 12.2528 0.093194 0.528482 -3.020363
2011-03-03 04:11:25 51°13.665 2°55.959 12.252 0.093194 0.528492 -3.020363
2011-03-03 04:11:30 51°13.665 2°55.959 12.2516 0.093297 0.529098 -3.020363
2011-03-03 04:11:35 51°13.665 2°55.959 12.2507 0.093297 0.529089 -3.020363
2011-03-03 04:11:40 51°13.665 2°55.959 12.2516 0.093194 0.528482 -3.020363
2011-03-03 04:11:45 51°13.665 2°55.959 12.2538 0.093194 0.528482 -3.020363
2011-03-03 04:11:50 51°13.665 2°55.959 12.2544 0.093194 0.528482 -3.020363
2011-03-03 04:11:55 51°13.665 2°55.959 12.2541 0.093297 0.529098 -3.020363
2011-03-03 04:12:00 51°13.665 2°55.959 12.256 0.093194 0.528492 -3.020363
2011-03-03 04:12:05 51°13.665 2°55.959 12.2547 0.093194 0.528482 -3.020363
2011-03-03 04:12:10 51°13.665 2°55.959 12.2556 0.093297 0.529089 -3.020363
2011-03-03 04:12:15 51°13.665 2°55.959 12.2541 0.093297 0.529089 -3.020363
2011-03-03 04:12:20 51°13.665 2°55.959 12.2549 0.093194 0.528482 -3.020363
2011-03-03 04:12:25 51°13.665 2°55.959 12.2555 0.093194 0.528482 -3.020363
2011-03-03 04:12:30 51°13.665 2°55.959 12.2545 0.093297 0.529089 -3.020363
2011-03-03 04:12:35 51°13.665 2°55.959 12.2564 0.093194 0.528482 -3.020363
2011-03-03 04:12:40 51°13.665 2°55.958 12.2563 0.093194 0.528482 -3.020363
2011-03-03 04:12:45 51°13.665 2°55.959 12.2557 0.093194 0.528482 -3.020363
2011-03-03 04:12:50 51°13.665 2°55.959 12.2524 0.093194 0.528482 -3.020363
2011-03-03 04:12:55 51°13.665 2°55.959 12.2542 0.093194 0.528482 -3.020363
2011-03-03 04:13:00 51°13.665 2°55.959 12.2516 0.093297 0.529089 -3.020363
2011-03-03 04:13:05 51°13.665 2°55.958 12.2529 0.093194 0.528482 -3.020363
2011-03-03 04:13:10 51°13.665 2°55.958 12.2532 0.093297 0.529089 -3.020363
2011-03-03 04:13:15 51°13.665 2°55.958 12.2539 0.093297 0.529089 -3.020363
2011-03-03 04:13:20 51°13.665 2°55.958 12.2537 0.093297 0.529089 -3.020363
2011-03-03 04:13:25 51°13.664 2°55.958 12.2534 0.093194 0.528473 -3.020363
2011-03-03 04:13:30 51°13.665 2°55.959 12.2532 0.093194 0.528473 -3.020363
2011-03-03 04:13:35 51°13.665 2°55.959 12.2547 0.093194 0.528473 -3.020363
2011-03-03 04:13:40 51°13.665 2°55.959 12.2559 0.093194 0.528482 -3.020363
2011-03-03 04:13:45 51°13.665 2°55.959 12.2543 0.093194 0.528482 -3.020363
2011-03-03 04:13:50 51°13.665 2°55.959 12.2533 0.093194 0.528482 -3.020363
2011-03-03 04:13:55 51°13.664 2°55.958 12.253 0.093194 0.528482 -3.020363
2011-03-03 04:14:00 51°13.664 2°55.958 12.2551 0.093297 0.529079 -3.020363
2011-03-03 04:14:05 51°13.664 2°55.959 12.2542 0.093297 0.529079 -3.020363
2011-03-03 04:14:10 51°13.664 2°55.958 12.2524 0.093194 0.528482 -3.020363
2011-03-03 04:14:15 51°13.664 2°55.958 12.2526 0.093194 0.528482 -3.020363
2011-03-03 04:14:20 51°13.663 2°55.958 12.2522 0.093297 0.529079 -3.020363
2011-03-03 04:14:25 51°13.663 2°55.958 12.255 0.093194 0.528473 -3.020363
2011-03-03 04:14:30 51°13.663 2°55.958 12.2542 0.093194 0.528473 -3.020363
2011-03-03 04:14:35 51°13.663 2°55.958 12.2523 0.093297 0.529079 -3.020363
2011-03-03 04:14:40 51°13.663 2°55.958 12.2507 0.093194 0.528473 -3.020363
2011-03-03 04:14:45 51°13.662 2°55.958 12.2509 0.093194 0.528473 -3.020363
2011-03-03 04:14:50 51°13.662 2°55.958 12.251 0.093297 0.529079 -3.020363
2011-03-03 04:14:55 51°13.662 2°55.958 12.2498 0.093194 0.528473 -3.020363
2011-03-03 04:15:00 51°13.662 2°55.958 12.2501 0.093194 0.528473 -3.020363
2011-03-03 04:15:05 51°13.662 2°55.958 12.2489 0.093194 0.528473 -3.020363
2011-03-03 04:15:10 51°13.662 2°55.958 12.2483 0.093297 0.529079 -3.020363
2011-03-03 04:15:15 51°13.662 2°55.958 12.249 0.093297 0.529079 -3.020363
2011-03-03 04:15:20 51°13.662 2°55.958 12.2497 0.093297 0.529079 -3.020363
2011-03-03 04:15:25 51°13.662 2°55.958 12.248 0.093194 0.528473 -3.020363
2011-03-03 04:15:30 51°13.662 2°55.958 12.2512 0.093194 0.528473 -3.020363
2011-03-03 04:15:35 51°13.662 2°55.958 12.2504 0.093194 0.528473 -3.020363
2011-03-03 04:15:40 51°13.662 2°55.958 12.251 0.093297 0.529079 -3.020363
2011-03-03 04:15:45 51°13.662 2°55.958 12.2496 0.093297 0.529079 -3.020363
2011-03-03 04:15:50 51°13.662 2°55.958 12.2508 0.093297 0.529079 -3.020363
2011-03-03 04:15:55 51°13.662 2°55.958 12.2507 0.093297 0.529079 -3.020363
2011-03-03 04:16:00 51°13.662 2°55.958 12.2503 0.093297 0.529079 -3.020363
2011-03-03 04:16:05 51°13.662 2°55.957 12.2498 0.093297 0.529079 -3.020363
2011-03-03 04:16:10 51°13.662 2°55.958 12.2499 0.093297 0.529069 -3.020363
2011-03-03 04:16:15 51°13.662 2°55.957 12.2519 0.093297 0.529069 -3.020363
2011-03-03 04:16:20 51°13.662 2°55.957 12.2519 0.093297 0.529079 -3.020363
2011-03-03 04:16:25 51°13.662 2°55.957 12.2526 0.093194 0.528463 -3.020363
2011-03-03 04:16:30 51°13.662 2°55.957 12.2525 0.093297 0.529079 -3.020363
2011-03-03 04:16:35 51°13.662 2°55.958 12.2549 0.093194 0.528463 -3.020363
2011-03-03 04:16:40 51°13.662 2°55.958 12.2529 0.093297 0.529079 -3.020363
2011-03-03 04:16:45 51°13.662 2°55.958 12.254 0.093297 0.529079 -3.020363
2011-03-03 04:16:50 51°13.662 2°55.957 12.2502 0.093194 0.528473 -3.020363
2011-03-03 04:16:55 51°13.662 2°55.957 12.2512 0.093297 0.529079 -3.020363
2011-03-03 04:17:00 51°13.662 2°55.958 12.2509 0.093194 0.528473 -3.020363
2011-03-03 04:17:05 51°13.662 2°55.957 12.2514 0.093297 0.529079 -3.020363
2011-03-03 04:17:10 51°13.662 2°55.957 12.2512 0.093194 0.528473 -3.020363
2011-03-03 04:17:15 51°13.662 2°55.958 12.2501 0.093194 0.528473 -3.020363
2011-03-03 04:17:20 51°13.662 2°55.958 12.2501 0.093297 0.529069 -3.020363
2011-03-03 04:17:25 51°13.662 2°55.958 12.2502 0.093194 0.528463 -3.020363
2011-03-03 04:17:30 51°13.662 2°55.958 12.251 0.093194 0.528463 -3.020363
2011-03-03 04:17:35 51°13.662 2°55.958 12.2506 0.093194 0.528463 -3.020363
2011-03-03 04:17:40 51°13.662 2°55.958 12.2488 0.093297 0.529069 -3.020363
2011-03-03 04:17:45 51°13.662 2°55.958 12.2484 0.093297 0.529069 -3.020363
2011-03-03 04:17:50 51°13.662 2°55.959 12.2492 0.093194 0.528463 -3.020363
2011-03-03 04:17:55 51°13.662 2°55.959 12.2504 0.093297 0.529069 -3.020363
2011-03-03 04:18:00 51°13.662 2°55.959 12.2508 0.093297 0.529069 -3.020363
2011-03-03 04:18:05 51°13.662 2°55.959 12.2521 0.093297 0.529069 -3.020363
2011-03-03 04:18:10 51°13.662 2°55.959 12.253 0.093297 0.529069 -3.020363
2011-03-03 04:18:15 51°13.662 2°55.959 12.2545 0.093297 0.529069 -3.020363
2011-03-03 04:18:20 51°13.662 2°55.959 12.2534 0.093297 0.529069 -3.020363
2011-03-03 04:18:25 51°13.663 2°55.959 12.2543 0.093297 0.529069 -3.020363
2011-03-03 04:18:30 51°13.663 2°55.959 12.2523 0.093297 0.529069 -3.020363
2011-03-03 04:18:35 51°13.662 2°55.959 12.2522 0.093297 0.529069 -3.020363
2011-03-03 04:18:40 51°13.663 2°55.959 12.2523 0.093297 0.529069 -3.020363
2011-03-03 04:18:45 51°13.663 2°55.959 12.2538 0.093297 0.529069 -3.020363
2011-03-03 04:18:50 51°13.663 2°55.959 12.2519 0.093297 0.529069 -3.020363
2011-03-03 04:18:55 51°13.663 2°55.959 12.2507 0.093297 0.529069 -3.020363
2011-03-03 04:19:00 51°13.663 2°55.959 12.2514 0.093297 0.529059 -3.020363
2011-03-03 04:19:05 51°13.663 2°55.959 12.2512 0.093297 0.529069 -3.020363
2011-03-03 04:19:10 51°13.663 2°55.959 12.2517 0.093194 0.528453 -3.020363
2011-03-03 04:19:15 51°13.663 2°55.959 12.2507 0.093194 0.528453 -3.020363
2011-03-03 04:19:20 51°13.663 2°55.959 12.2528 0.093297 0.529059 -3.020363
2011-03-03 04:19:25 51°13.664 2°55.96 12.2517 0.093297 0.529059 -3.020363
2011-03-03 04:19:30 51°13.664 2°55.96 12.2495 0.093297 0.529069 -3.020363
2011-03-03 04:19:35 51°13.664 2°55.96 12.2476 0.093297 0.529059 -3.020363
2011-03-03 04:19:40 51°13.664 2°55.96 12.2476 0.093194 0.528453 -3.020363
2011-03-03 04:19:45 51°13.664 2°55.96 12.2476 0.093194 0.528453 -3.020363
2011-03-03 04:19:50 51°13.664 2°55.96 12.2461 0.093297 0.529059 -3.020363
2011-03-03 04:19:55 51°13.664 2°55.96 12.249 0.093297 0.529059 -3.020363
2011-03-03 04:20:00 51°13.664 2°55.96 12.2473 0.093297 0.529059 -3.020363
2011-03-03 04:20:05 51°13.664 2°55.96 12.249 0.093194 0.528453 -3.020363
2011-03-03 04:20:10 51°13.663 2°55.96 12.249 0.093297 0.529059 -3.020363
2011-03-03 04:20:15 51°13.663 2°55.959 12.2475 0.093297 0.529059 -3.020363
2011-03-03 04:20:20 51°13.664 2°55.96 12.2434 0.093297 0.529059 -3.020363
2011-03-03 04:20:25 51°13.664 2°55.96 12.2464 0.093297 0.529059 -3.020363
2011-03-03 04:20:30 51°13.663 2°55.96 12.2462 0.093297 0.529059 -3.020363
2011-03-03 04:20:35 51°13.663 2°55.96 12.2453 0.093297 0.529059 -3.020363
2011-03-03 04:20:40 51°13.663 2°55.96 12.2448 0.093297 0.529059 -3.020363
2011-03-03 04:20:45 51°13.663 2°55.96 12.2462 0.093297 0.529059 -3.020363
2011-03-03 04:20:50 51°13.663 2°55.96 12.2459 0.093297 0.529049 -3.020363
2011-03-03 04:20:55 51°13.663 2°55.96 12.2462 0.093297 0.529049 -3.020363
2011-03-03 04:21:00 51°13.663 2°55.959 12.2433 0.093297 0.529049 -3.020363
2011-03-03 04:21:05 51°13.662 2°55.959 12.2433 0.093297 0.529049 -3.020363
2011-03-03 04:21:10 51°13.662 2°55.959 12.2434 0.093297 0.529049 -3.020363
2011-03-03 04:21:15 51°13.663 2°55.959 12.2426 0.093297 0.529049 -3.020363
2011-03-03 04:21:20 51°13.663 2°55.96 12.2426 0.093297 0.529049 -3.020363
2011-03-03 04:21:25 51°13.663 2°55.96 12.2396 0.093297 0.529049 -3.020363
2011-03-03 04:21:30 51°13.663 2°55.96 12.2409 0.093297 0.529049 -3.020363
2011-03-03 04:21:35 51°13.663 2°55.96 12.2415 0.093297 0.529049 -3.020363
2011-03-03 04:21:40 51°13.663 2°55.96 12.2426 0.093297 0.529049 -3.020363
2011-03-03 04:21:45 51°13.663 2°55.96 12.2439 0.093297 0.529049 -3.020363
2011-03-03 04:21:50 51°13.662 2°55.959 12.2439 0.093297 0.529049 -3.020363
2011-03-03 04:21:55 51°13.662 2°55.959 12.2445 0.093297 0.529049 -3.020363
2011-03-03 04:22:00 51°13.662 2°55.959 12.2432 0.093297 0.529049 -3.020363
2011-03-03 04:22:05 51°13.662 2°55.959 12.2442 0.093297 0.529049 -3.020363
2011-03-03 04:22:10 51°13.662 2°55.959 12.2423 0.093297 0.52904 -3.020363
2011-03-03 04:22:15 51°13.662 2°55.959 12.2444 0.093297 0.52904 -3.020363
2011-03-03 04:22:20 51°13.662 2°55.959 12.2444 0.093297 0.52904 -3.020363
2011-03-03 04:22:25 51°13.662 2°55.959 12.2446 0.093297 0.52904 -3.020363
2011-03-03 04:22:30 51°13.662 2°55.959 12.2476 0.093194 0.528443 -3.020363
2011-03-03 04:22:35 51°13.663 2°55.959 12.2463 0.093297 0.529049 -3.020363
2011-03-03 04:22:40 51°13.663 2°55.959 12.2468 0.093297 0.529049 -3.020363
2011-03-03 04:22:45 51°13.662 2°55.959 12.2458 0.093297 0.529049 -3.020363
2011-03-03 04:22:50 51°13.662 2°55.958 12.2461 0.093297 0.52904 -3.020363
2011-03-03 04:22:55 51°13.662 2°55.958 12.2474 0.093297 0.529049 -3.020363
2011-03-03 04:23:00 51°13.662 2°55.958 12.2488 0.093297 0.52904 -3.020363
2011-03-03 04:23:05 51°13.662 2°55.958 12.2496 0.093297 0.52904 -3.020363
2011-03-03 04:23:10 51°13.662 2°55.958 12.2497 0.093297 0.52904 -3.020363
2011-03-03 04:23:15 51°13.662 2°55.959 12.2509 0.093297 0.52904 -3.020363
2011-03-03 04:23:20 51°13.662 2°55.959 12.2512 0.093297 0.52904 -3.020363
2011-03-03 04:23:25 51°13.662 2°55.958 12.2476 0.093194 0.528434 -3.020363
2011-03-03 04:23:30 51°13.662 2°55.958 12.2448 0.093297 0.52904 -3.020363
2011-03-03 04:23:35 51°13.662 2°55.958 12.2458 0.093297 0.52904 -3.020363
2011-03-03 04:23:40 51°13.662 2°55.959 12.2471 0.093297 0.52904 -3.020363
2011-03-03 04:23:45 51°13.663 2°55.959 12.2469 0.093297 0.52904 -3.020363
2011-03-03 04:23:50 51°13.663 2°55.958 12.2454 0.093297 0.52904 -3.020363
2011-03-03 04:23:55 51°13.663 2°55.959 12.2461 0.093297 0.52904 -3.020363
2011-03-03 04:24:00 51°13.663 2°55.959 12.2443 0.093194 0.528434 -3.020363
2011-03-03 04:24:05 51°13.663 2°55.958 12.2418 0.093297 0.52904 -3.020363
2011-03-03 04:24:10 51°13.663 2°55.959 12.2419 0.093297 0.52904 -3.020363
2011-03-03 04:24:15 51°13.663 2°55.959 12.2421 0.093297 0.52904 -3.020363
2011-03-03 04:24:20 51°13.663 2°55.959 12.2405 0.093297 0.52904 -3.020363
2011-03-03 04:24:25 51°13.663 2°55.959 12.2406 0.093297 0.52904 -3.020363
2011-03-03 04:24:30 51°13.663 2°55.959 12.2397 0.093297 0.52904 -3.020363
2011-03-03 04:24:35 51°13.663 2°55.959 12.2397 0.093297 0.52904 -3.020363
2011-03-03 04:24:40 51°13.663 2°55.959 12.2401 0.093297 0.52903 -3.020363
2011-03-03 04:24:45 51°13.662 2°55.959 12.2384 0.093297 0.52903 -3.020363
2011-03-03 04:24:50 51°13.662 2°55.959 12.2381 0.093297 0.52903 -3.020363
2011-03-03 04:24:55 51°13.662 2°55.959 12.237 0.093194 0.528424 -3.020363
2011-03-03 04:25:00 51°13.662 2°55.959 12.2373 0.093297 0.52903 -3.020363
2011-03-03 04:25:05 51°13.662 2°55.959 12.2365 0.093297 0.52903 -3.020363
2011-03-03 04:25:10 51°13.662 2°55.958 12.2382 0.093297 0.52903 -3.020363
2011-03-03 04:25:15 51°13.662 2°55.958 12.2376 0.093297 0.52903 -3.020363
2011-03-03 04:25:20 51°13.662 2°55.958 12.2387 0.093297 0.52903 -3.020363
2011-03-03 04:25:25 51°13.662 2°55.959 12.2378 0.093297 0.52903 -3.020363
2011-03-03 04:25:30 51°13.662 2°55.959 12.2392 0.093297 0.52904 -3.020363
2011-03-03 04:25:35 51°13.662 2°55.958 12.2384 0.093297 0.52903 -3.020363
2011-03-03 04:25:40 51°13.662 2°55.958 12.2385 0.093297 0.52903 -3.020363
2011-03-03 04:25:45 51°13.662 2°55.958 12.2412 0.093297 0.52903 -3.020363
2011-03-03 04:25:50 51°13.662 2°55.958 12.2408 0.093297 0.52903 -3.020363
2011-03-03 04:25:55 51°13.661 2°55.958 12.2409 0.093297 0.52903 -3.020363
2011-03-03 04:26:00 51°13.661 2°55.958 12.2384 0.093297 0.52903 -3.020363
2011-03-03 04:26:05 51°13.661 2°55.958 12.241 0.093297 0.52904 -3.020363
2011-03-03 04:26:10 51°13.661 2°55.958 12.2415 0.093297 0.52904 -3.020363
2011-03-03 04:26:15 51°13.662 2°55.958 12.2435 0.093297 0.52904 -3.020363
2011-03-03 04:26:20 51°13.661 2°55.958 12.2434 0.093297 0.52904 -3.020363
2011-03-03 04:26:25 51°13.662 2°55.958 12.2434 0.093297 0.52904 -3.020363
2011-03-03 04:26:30 51°13.661 2°55.958 12.2439 0.093297 0.52904 -3.020363
2011-03-03 04:26:35 51°13.661 2°55.958 12.2429 0.093297 0.52904 -3.020363
2011-03-03 04:26:40 51°13.661 2°55.958 12.2414 0.093194 0.528424 -3.020363
2011-03-03 04:26:45 51°13.661 2°55.958 12.2407 0.093194 0.528424 -3.020363
2011-03-03 04:26:50 51°13.661 2°55.958 12.242 0.093297 0.52904 -3.020363
2011-03-03 04:26:55 51°13.661 2°55.958 12.2408 0.093297 0.52903 -3.020363
2011-03-03 04:27:00 51°13.661 2°55.958 12.2402 0.093297 0.52903 -3.020363
2011-03-03 04:27:05 51°13.661 2°55.958 12.2415 0.093297 0.52903 -3.020363
2011-03-03 04:27:10 51°13.661 2°55.958 12.2415 0.093297 0.52903 -3.020363
2011-03-03 04:27:15 51°13.661 2°55.958 12.2399 0.093297 0.52903 -3.020363
2011-03-03 04:27:20 51°13.661 2°55.958 12.2412 0.093297 0.52903 -3.020363
2011-03-03 04:27:25 51°13.661 2°55.958 12.239 0.093297 0.52903 -3.020363
2011-03-03 04:27:30 51°13.661 2°55.958 12.2396 0.093297 0.52903 -3.020363
2011-03-03 04:27:35 51°13.661 2°55.958 12.2381 0.093297 0.52903 -3.020363
2011-03-03 04:27:40 51°13.661 2°55.958 12.2403 0.093297 0.52903 -3.020363
2011-03-03 04:27:45 51°13.661 2°55.958 12.2385 0.093297 0.52903 -3.020363
2011-03-03 04:27:50 51°13.661 2°55.958 12.238 0.093297 0.52903 -3.020363
2011-03-03 04:27:55 51°13.661 2°55.958 12.2376 0.093297 0.52903 -3.020363
2011-03-03 04:28:00 51°13.661 2°55.958 12.2393 0.093297 0.52903 -3.020363
2011-03-03 04:28:05 51°13.66 2°55.958 12.2379 0.093297 0.52903 -3.020363
2011-03-03 04:28:10 51°13.66 2°55.958 12.2392 0.093297 0.52903 -3.020363
2011-03-03 04:28:15 51°13.661 2°55.958 12.2379 0.093297 0.52903 -3.020363
2011-03-03 04:28:20 51°13.661 2°55.958 12.2374 0.093297 0.52903 -3.020363
2011-03-03 04:28:25 51°13.661 2°55.958 12.2383 0.093297 0.52903 -3.020363
2011-03-03 04:28:30 51°13.661 2°55.958 12.2373 0.093297 0.52903 -3.020363
2011-03-03 04:28:35 51°13.661 2°55.958 12.2365 0.093194 0.528424 -3.020363
2011-03-03 04:28:40 51°13.661 2°55.957 12.2361 0.093297 0.52903 -3.020363
2011-03-03 04:28:45 51°13.661 2°55.957 12.2382 0.093297 0.52903 -3.020363
2011-03-03 04:28:50 51°13.661 2°55.958 12.2364 0.093297 0.52903 -3.020363
2011-03-03 04:28:55 51°13.661 2°55.958 12.2358 0.093297 0.52903 -3.020363
2011-03-03 04:29:00 51°13.661 2°55.958 12.2361 0.093194 0.528414 -3.020363
2011-03-03 04:29:05 51°13.661 2°55.958 12.2361 0.093297 0.52903 -3.020363
2011-03-03 04:29:10 51°13.661 2°55.958 12.2345 0.093297 0.52903 -3.020363
2011-03-03 04:29:15 51°13.661 2°55.958 12.2352 0.093297 0.52903 -3.020363
2011-03-03 04:29:20 51°13.661 2°55.957 12.2343 0.093297 0.52902 -3.020363
2011-03-03 04:29:25 51°13.661 2°55.958 12.2336 0.093297 0.52902 -3.020363
2011-03-03 04:29:30 51°13.661 2°55.958 12.2328 0.093297 0.52902 -3.020363
2011-03-03 04:29:35 51°13.66 2°55.957 12.2337 0.093297 0.52902 -3.020363
2011-03-03 04:29:40 51°13.661 2°55.958 12.2334 0.093297 0.52902 -3.020363
2011-03-03 04:29:45 51°13.661 2°55.958 12.2335 0.093297 0.52902 -3.020363
2011-03-03 04:29:50 51°13.662 2°55.958 12.2349 0.093297 0.52902 -3.020363
2011-03-03 04:29:55 51°13.661 2°55.958 12.2341 0.093297 0.52903 -3.020363
2011-03-03 04:30:00 51°13.661 2°55.958 12.2341 0.093297 0.52903 -3.020363
2011-03-03 04:30:05 51°13.661 2°55.958 12.2365 0.093297 0.52903 -3.020363
2011-03-03 04:30:10 51°13.661 2°55.958 12.2347 0.093297 0.52903 -3.020363
2011-03-03 04:30:15 51°13.662 2°55.959 12.2339 0.093297 0.52903 -3.020363
2011-03-03 04:30:20 51°13.662 2°55.959 12.2354 0.093297 0.52903 -3.020363
2011-03-03 04:30:25 51°13.662 2°55.959 12.2355 0.093297 0.52902 -3.020363
2011-03-03 04:30:30 51°13.662 2°55.959 12.2374 0.093297 0.52902 -3.020363
2011-03-03 04:30:35 51°13.662 2°55.959 12.2374 0.093297 0.52903 -3.020363
2011-03-03 04:30:40 51°13.662 2°55.959 12.2365 0.093297 0.52902 -3.020363
2011-03-03 04:30:45 51°13.662 2°55.959 12.2378 0.093297 0.52902 -3.020363
2011-03-03 04:30:50 51°13.662 2°55.959 12.238 0.093297 0.52902 -3.020363
2011-03-03 04:30:55 51°13.662 2°55.959 12.2382 0.093297 0.52902 -3.020363
2011-03-03 04:31:00 51°13.662 2°55.959 12.2381 0.093297 0.52902 -3.020363
2011-03-03 04:31:05 51°13.662 2°55.959 12.2366 0.093297 0.52902 -3.020363
2011-03-03 04:31:10 51°13.662 2°55.959 12.2367 0.093297 0.52902 -3.020363
2011-03-03 04:31:15 51°13.662 2°55.959 12.2372 0.093297 0.52902 -3.020363
2011-03-03 04:31:20 51°13.662 2°55.96 12.2352 0.093297 0.52902 -3.020363
2011-03-03 04:31:25 51°13.662 2°55.96 12.235 0.093297 0.52902 -3.020363
2011-03-03 04:31:30 51°13.662 2°55.96 12.2342 0.093297 0.52902 -3.020363
2011-03-03 04:31:35 51°13.662 2°55.96 12.2346 0.093297 0.52902 -3.020363
2011-03-03 04:31:40 51°13.662 2°55.96 12.2344 0.093194 0.528414 -3.020363
2011-03-03 04:31:45 51°13.662 2°55.96 12.2337 0.093194 0.528414 -3.020363
2011-03-03 04:31:50 51°13.662 2°55.96 12.2352 0.093297 0.52902 -3.020363
2011-03-03 04:31:55 51°13.662 2°55.96 12.235 0.093297 0.52902 -3.020363
2011-03-03 04:32:00 51°13.662 2°55.96 12.2334 0.093297 0.52902 -3.020363
2011-03-03 04:32:05 51°13.662 2°55.96 12.231 0.093297 0.52902 -3.020363
2011-03-03 04:32:10 51°13.662 2°55.959 12.2316 0.093297 0.52902 -3.020363
2011-03-03 04:32:15 51°13.662 2°55.96 12.2333 0.093297 0.52902 -3.020363
2011-03-03 04:32:20 51°13.662 2°55.96 12.2349 0.093297 0.52902 -3.020363
2011-03-03 04:32:25 51°13.663 2°55.96 12.2344 0.093297 0.52902 -3.020363
2011-03-03 04:32:30 51°13.663 2°55.96 12.2359 0.093297 0.52902 -3.020363
2011-03-03 04:32:35 51°13.663 2°55.96 12.2347 0.093297 0.52901 -3.020363
2011-03-03 04:32:40 51°13.662 2°55.96 12.2351 0.093297 0.52902 -3.020363
2011-03-03 04:32:45 51°13.663 2°55.96 12.2368 0.093297 0.52902 -3.020363
2011-03-03 04:32:50 51°13.663 2°55.96 12.2373 0.093297 0.52902 -3.020363
2011-03-03 04:32:55 51°13.663 2°55.96 12.2388 0.093297 0.52901 -3.020363
2011-03-03 04:33:00 51°13.663 2°55.96 12.2368 0.093297 0.52902 -3.020363
2011-03-03 04:33:05 51°13.663 2°55.96 12.2385 0.093297 0.52902 -3.020363
2011-03-03 04:33:10 51°13.663 2°55.96 12.2386 0.093297 0.52901 -3.020363
2011-03-03 04:33:15 51°13.663 2°55.96 12.239 0.093297 0.52901 -3.020363
2011-03-03 04:33:20 51°13.663 2°55.96 12.2375 0.093297 0.52901 -3.020363
2011-03-03 04:33:25 51°13.663 2°55.96 12.2387 0.093297 0.52901 -3.020363
2011-03-03 04:33:30 51°13.663 2°55.96 12.2381 0.093297 0.52902 -3.020363
2011-03-03 04:33:35 51°13.663 2°55.96 12.2364 0.093297 0.52901 -3.020363
2011-03-03 04:33:40 51°13.663 2°55.96 12.2363 0.093297 0.52901 -3.020363
2011-03-03 04:33:45 51°13.663 2°55.96 12.2345 0.093297 0.52901 -3.020363
2011-03-03 04:33:50 51°13.663 2°55.959 12.2349 0.093297 0.52901 -3.020363
2011-03-03 04:33:55 51°13.663 2°55.959 12.2353 0.093297 0.52901 -3.020363
2011-03-03 04:34:00 51°13.663 2°55.959 12.2348 0.093297 0.52901 -3.020363
2011-03-03 04:34:05 51°13.663 2°55.959 12.2364 0.093297 0.52901 -3.020363
2011-03-03 04:34:10 51°13.662 2°55.959 12.2355 0.093297 0.52901 -3.020363
2011-03-03 04:34:15 51°13.662 2°55.959 12.236 0.093297 0.52901 -3.020363
2011-03-03 04:34:20 51°13.663 2°55.959 12.2349 0.093297 0.52901 -3.020363
2011-03-03 04:34:25 51°13.663 2°55.959 12.236 0.093297 0.52901 -3.020363
2011-03-03 04:34:30 51°13.662 2°55.959 12.2367 0.093297 0.52901 -3.020363
2011-03-03 04:34:35 51°13.662 2°55.959 12.2357 0.093297 0.52901 -3.020363
2011-03-03 04:34:40 51°13.663 2°55.959 12.2364 0.093297 0.52901 -3.020363
2011-03-03 04:34:45 51°13.663 2°55.959 12.236 0.093297 0.52901 -3.020363
2011-03-03 04:34:50 51°13.663 2°55.959 12.2348 0.093297 0.52901 -3.020363
2011-03-03 04:34:55 51°13.663 2°55.959 12.2355 0.093297 0.529001 -3.020363
2011-03-03 04:35:00 51°13.663 2°55.959 12.2348 0.093297 0.529001 -3.020363
2011-03-03 04:35:05 51°13.663 2°55.958 12.234 0.093297 0.52901 -3.020363
2011-03-03 04:35:10 51°13.663 2°55.958 12.2352 0.093297 0.529001 -3.020363
2011-03-03 04:35:15 51°13.663 2°55.959 12.2341 0.093297 0.529001 -3.020363
2011-03-03 04:35:20 51°13.663 2°55.958 12.2347 0.093297 0.529001 -3.020363
2011-03-03 04:35:25 51°13.663 2°55.958 12.2347 0.093297 0.529001 -3.020363
2011-03-03 04:35:30 51°13.663 2°55.958 12.2335 0.093297 0.529001 -3.020363
2011-03-03 04:35:35 51°13.663 2°55.958 12.2333 0.093297 0.529001 -3.020363
2011-03-03 04:35:40 51°13.663 2°55.958 12.2342 0.093297 0.529001 -3.020363
2011-03-03 04:35:45 51°13.663 2°55.958 12.2352 0.093297 0.529001 -3.020363
2011-03-03 04:35:50 51°13.663 2°55.958 12.2355 0.093297 0.529001 -3.020363
2011-03-03 04:35:55 51°13.663 2°55.958 12.2351 0.093297 0.529001 -3.020363
2011-03-03 04:36:00 51°13.663 2°55.958 12.2338 0.093297 0.529001 -3.020363
2011-03-03 04:36:05 51°13.663 2°55.958 12.2343 0.093297 0.529001 -3.020363
2011-03-03 04:36:10 51°13.663 2°55.958 12.2325 0.093297 0.529001 -3.020363
2011-03-03 04:36:15 51°13.663 2°55.958 12.2332 0.093297 0.529001 -3.020363
2011-03-03 04:36:20 51°13.663 2°55.958 12.2316 0.093297 0.529001 -3.020363
2011-03-03 04:36:25 51°13.663 2°55.958 12.2322 0.093297 0.529001 -3.020363
2011-03-03 04:36:30 51°13.663 2°55.958 12.2322 0.093297 0.529001 -3.020363
2011-03-03 04:36:35 51°13.663 2°55.958 12.2332 0.093297 0.529001 -3.020363
2011-03-03 04:36:40 51°13.663 2°55.958 12.2316 0.093297 0.529001 -3.020363
2011-03-03 04:36:45 51°13.663 2°55.958 12.2316 0.093297 0.529001 -3.020363
2011-03-03 04:36:50 51°13.663 2°55.958 12.2307 0.093297 0.529001 -3.020363
2011-03-03 04:36:55 51°13.663 2°55.958 12.2314 0.093297 0.529001 -3.020363
2011-03-03 04:37:00 51°13.663 2°55.958 12.2333 0.093297 0.529001 -3.020363
2011-03-03 04:37:05 51°13.663 2°55.958 12.2328 0.093297 0.529001 -3.020363
2011-03-03 04:37:10 51°13.663 2°55.957 12.2346 0.093297 0.529001 -3.020363
2011-03-03 04:37:15 51°13.663 2°55.957 12.2335 0.093297 0.529001 -3.020363
2011-03-03 04:37:20 51°13.663 2°55.957 12.2333 0.093297 0.529001 -3.020363
2011-03-03 04:37:25 51°13.663 2°55.958 12.2328 0.093297 0.529001 -3.020363
2011-03-03 04:37:30 51°13.663 2°55.957 12.2328 0.093297 0.528991 -3.020363
2011-03-03 04:37:35 51°13.663 2°55.957 12.2331 0.093297 0.528991 -3.020363
2011-03-03 04:37:40 51°13.663 2°55.957 12.2314 0.093297 0.528991 -3.020363
2011-03-03 04:37:45 51°13.663 2°55.957 12.2315 0.093297 0.528991 -3.020363
2011-03-03 04:37:50 51°13.663 2°55.957 12.2309 0.093297 0.528991 -3.020363
2011-03-03 04:37:55 51°13.663 2°55.957 12.2323 0.093297 0.528991 -3.020363
2011-03-03 04:38:00 51°13.663 2°55.957 12.2332 0.093297 0.529001 -3.020363
2011-03-03 04:38:05 51°13.663 2°55.957 12.2325 0.093297 0.529001 -3.020363
2011-03-03 04:38:10 51°13.663 2°55.957 12.2311 0.093297 0.528991 -3.020363
2011-03-03 04:38:15 51°13.663 2°55.957 12.232 0.093297 0.528991 -3.020363
2011-03-03 04:38:20 51°13.663 2°55.957 12.2333 0.093297 0.529001 -3.020363
2011-03-03 04:38:25 51°13.663 2°55.957 12.2323 0.093297 0.528991 -3.020363
2011-03-03 04:38:30 51°13.663 2°55.957 12.2325 0.093297 0.528991 -3.020363
2011-03-03 04:38:35 51°13.663 2°55.957 12.2323 0.093297 0.528991 -3.020363
2011-03-03 04:38:40 51°13.663 2°55.957 12.2295 0.093297 0.529001 -3.020363
2011-03-03 04:38:45 51°13.663 2°55.957 12.2284 0.093297 0.529001 -3.020363
2011-03-03 04:38:50 51°13.663 2°55.957 12.2286 0.093297 0.528991 -3.020363
2011-03-03 04:38:55 51°13.663 2°55.957 12.2281 0.093297 0.528991 -3.020363
2011-03-03 04:39:00 51°13.663 2°55.957 12.2256 0.093297 0.528991 -3.020363
2011-03-03 04:39:05 51°13.663 2°55.957 12.228 0.093297 0.528991 -3.020363
2011-03-03 04:39:10 51°13.663 2°55.957 12.2269 0.093297 0.528991 -3.020363
2011-03-03 04:39:15 51°13.663 2°55.957 12.2262 0.093297 0.528991 -3.020363
2011-03-03 04:39:20 51°13.663 2°55.957 12.2246 0.093297 0.528991 -3.020363
2011-03-03 04:39:25 51°13.663 2°55.957 12.2228 0.093297 0.528991 -3.020363
2011-03-03 04:39:30 51°13.663 2°55.957 12.224 0.093297 0.528991 -3.020363
2011-03-03 04:39:35 51°13.663 2°55.957 12.2233 0.093297 0.528991 -3.020363
2011-03-03 04:39:40 51°13.663 2°55.957 12.224 0.093297 0.528991 -3.020363
2011-03-03 04:39:45 51°13.663 2°55.957 12.2236 0.093297 0.528991 -3.020363
2011-03-03 04:39:50 51°13.663 2°55.957 12.2236 0.093297 0.528991 -3.020363
2011-03-03 04:39:55 51°13.663 2°55.957 12.2244 0.093194 0.528385 -3.020363
2011-03-03 04:40:00 51°13.663 2°55.957 12.2266 0.093297 0.528991 -3.020363
2011-03-03 04:40:05 51°13.663 2°55.957 12.2271 0.093297 0.528991 -3.020363
2011-03-03 04:40:10 51°13.663 2°55.958 12.2283 0.093297 0.528991 -3.020363
2011-03-03 04:40:15 51°13.663 2°55.958 12.2269 0.093297 0.528991 -3.020363
2011-03-03 04:40:20 51°13.663 2°55.958 12.2272 0.093297 0.528991 -3.020363
2011-03-03 04:40:25 51°13.663 2°55.958 12.2268 0.093297 0.528991 -3.020363
2011-03-03 04:40:30 51°13.663 2°55.958 12.226 0.093297 0.528991 -3.020363
2011-03-03 04:40:35 51°13.663 2°55.958 12.2246 0.093297 0.528991 -3.020363
2011-03-03 04:40:40 51°13.663 2°55.958 12.2263 0.093297 0.528991 -3.020363
2011-03-03 04:40:45 51°13.663 2°55.958 12.2251 0.093297 0.528991 -3.020363
2011-03-03 04:40:50 51°13.663 2°55.958 12.226 0.093297 0.528991 -3.020363
2011-03-03 04:40:55 51°13.663 2°55.957 12.226 0.093297 0.528991 -3.020363
2011-03-03 04:41:00 51°13.663 2°55.958 12.2264 0.093297 0.528991 -3.020363
2011-03-03 04:41:05 51°13.663 2°55.958 12.226 0.093297 0.529001 -3.020363
2011-03-03 04:41:10 51°13.663 2°55.957 12.2287 0.093297 0.528991 -3.020363
2011-03-03 04:41:15 51°13.663 2°55.958 12.2268 0.093297 0.528991 -3.020363
2011-03-03 04:41:20 51°13.663 2°55.958 12.2275 0.093297 0.528991 -3.020363
2011-03-03 04:41:25 51°13.663 2°55.957 12.224 0.093297 0.529001 -3.020363
2011-03-03 04:41:30 51°13.663 2°55.957 12.2277 0.093297 0.528991 -3.020363
2011-03-03 04:41:35 51°13.663 2°55.958 12.2264 0.093297 0.528991 -3.020363
2011-03-03 04:41:40 51°13.663 2°55.958 12.226 0.093297 0.528991 -3.020363
2011-03-03 04:41:45 51°13.663 2°55.957 12.2256 0.093297 0.528991 -3.020363
2011-03-03 04:41:50 51°13.663 2°55.958 12.2269 0.093297 0.528991 -3.020363
2011-03-03 04:41:55 51°13.663 2°55.957 12.2268 0.093297 0.528991 -3.020363
2011-03-03 04:42:00 51°13.663 2°55.957 12.2247 0.093297 0.528991 -3.020363
2011-03-03 04:42:05 51°13.663 2°55.957 12.2234 0.093297 0.529001 -3.020363
2011-03-03 04:42:10 51°13.663 2°55.957 12.2247 0.093297 0.528991 -3.020363
2011-03-03 04:42:15 51°13.663 2°55.958 12.226 0.093297 0.528991 -3.020363
2011-03-03 04:42:20 51°13.663 2°55.958 12.2269 0.093297 0.529001 -3.020363
2011-03-03 04:42:25 51°13.662 2°55.958 12.2258 0.093297 0.528991 -3.020363
2011-03-03 04:42:30 51°13.662 2°55.958 12.2274 0.093297 0.528991 -3.020363
2011-03-03 04:42:35 51°13.663 2°55.958 12.2261 0.093297 0.528991 -3.020363
2011-03-03 04:42:40 51°13.663 2°55.958 12.2231 0.093297 0.528991 -3.020363
2011-03-03 04:42:45 51°13.663 2°55.958 12.2238 0.093297 0.528991 -3.020363
2011-03-03 04:42:50 51°13.663 2°55.958 12.2223 0.093297 0.529001 -3.020363
2011-03-03 04:42:55 51°13.663 2°55.958 12.2235 0.093297 0.529001 -3.020363
2011-03-03 04:43:00 51°13.663 2°55.958 12.2245 0.093297 0.528991 -3.020363
2011-03-03 04:43:05 51°13.663 2°55.958 12.225 0.093297 0.529001 -3.020363
2011-03-03 04:43:10 51°13.663 2°55.958 12.226 0.093297 0.529001 -3.020363
2011-03-03 04:43:15 51°13.663 2°55.958 12.2246 0.093297 0.529001 -3.020363
2011-03-03 04:43:20 51°13.663 2°55.958 12.2253 0.093297 0.529001 -3.020363
2011-03-03 04:43:25 51°13.663 2°55.958 12.2278 0.093297 0.528991 -3.020363
2011-03-03 04:43:30 51°13.663 2°55.958 12.2274 0.093297 0.528991 -3.020363
2011-03-03 04:43:35 51°13.663 2°55.958 12.2266 0.093297 0.529001 -3.020363
2011-03-03 04:43:40 51°13.663 2°55.958 12.226 0.093297 0.529001 -3.020363
2011-03-03 04:43:45 51°13.663 2°55.958 12.2271 0.093297 0.529001 -3.020363
2011-03-03 04:43:50 51°13.663 2°55.958 12.2258 0.093297 0.529001 -3.020363
2011-03-03 04:43:55 51°13.663 2°55.958 12.2268 0.093297 0.529001 -3.020363
2011-03-03 04:44:00 51°13.663 2°55.958 12.2256 0.093297 0.529001 -3.020363
2011-03-03 04:44:05 51°13.663 2°55.958 12.2225 0.093297 0.528991 -3.020363
2011-03-03 04:44:10 51°13.663 2°55.958 12.2228 0.093297 0.529001 -3.020363
2011-03-03 04:44:15 51°13.663 2°55.958 12.2229 0.093297 0.529001 -3.020363
2011-03-03 04:44:20 51°13.663 2°55.958 12.2229 0.093297 0.529001 -3.020363
2011-03-03 04:44:25 51°13.663 2°55.958 12.2233 0.093297 0.529001 -3.020363
2011-03-03 04:44:30 51°13.663 2°55.958 12.223 0.093297 0.529001 -3.020363
2011-03-03 04:44:35 51°13.663 2°55.958 12.2216 0.093297 0.529001 -3.020363
2011-03-03 04:44:40 51°13.663 2°55.958 12.2226 0.093297 0.529001 -3.020363
2011-03-03 04:44:45 51°13.663 2°55.957 12.2234 0.093297 0.529001 -3.020363
2011-03-03 04:44:50 51°13.663 2°55.958 12.2246 0.093297 0.529001 -3.020363
2011-03-03 04:44:55 51°13.663 2°55.958 12.223 0.093297 0.528991 -3.020363
2011-03-03 04:45:00 51°13.663 2°55.957 12.222 0.093297 0.529001 -3.020363
2011-03-03 04:45:05 51°13.663 2°55.957 12.2231 0.093297 0.528991 -3.020363
2011-03-03 04:45:10 51°13.663 2°55.957 12.2237 0.093297 0.529001 -3.020363
2011-03-03 04:45:15 51°13.663 2°55.957 12.2243 0.093297 0.529001 -3.020363
2011-03-03 04:45:20 51°13.663 2°55.957 12.2207 0.093297 0.529001 -3.020363
2011-03-03 04:45:25 51°13.663 2°55.957 12.2177 0.093297 0.529001 -3.020363
2011-03-03 04:45:30 51°13.663 2°55.957 12.2169 0.093297 0.528991 -3.020363
2011-03-03 04:45:35 51°13.663 2°55.957 12.2182 0.093297 0.528991 -3.020363
2011-03-03 04:45:40 51°13.663 2°55.957 12.218 0.093297 0.529001 -3.020363
2011-03-03 04:45:45 51°13.663 2°55.957 12.2194 0.093297 0.529001 -3.020363
2011-03-03 04:45:50 51°13.663 2°55.957 12.2202 0.093297 0.528991 -3.020363
2011-03-03 04:45:55 51°13.663 2°55.957 12.2205 0.093297 0.528991 -3.020363
2011-03-03 04:46:00 51°13.663 2°55.957 12.2213 0.093297 0.528991 -3.020363
2011-03-03 04:46:05 51°13.663 2°55.957 12.2192 0.093297 0.528991 -3.020363
2011-03-03 04:46:10 51°13.663 2°55.957 12.2215 0.093297 0.528991 -3.020363
2011-03-03 04:46:15 51°13.663 2°55.957 12.2179 0.093297 0.528991 -3.020363
2011-03-03 04:46:20 51°13.663 2°55.957 12.2195 0.093297 0.528991 -3.020363
2011-03-03 04:46:25 51°13.663 2°55.957 12.2196 0.093297 0.528991 -3.020363
2011-03-03 04:46:30 51°13.663 2°55.957 12.2195 0.093297 0.528991 -3.020363
2011-03-03 04:46:35 51°13.663 2°55.957 12.2175 0.093297 0.528991 -3.020363
2011-03-03 04:46:40 51°13.663 2°55.957 12.2183 0.093297 0.528991 -3.020363
2011-03-03 04:46:45 51°13.663 2°55.957 12.2188 0.093297 0.528991 -3.020363
2011-03-03 04:46:50 51°13.663 2°55.957 12.2179 0.093297 0.528991 -3.020363
2011-03-03 04:46:55 51°13.663 2°55.957 12.2186 0.093297 0.528991 -3.020363
2011-03-03 04:47:00 51°13.662 2°55.957 12.2187 0.093297 0.528991 -3.020363
2011-03-03 04:47:05 51°13.663 2°55.958 12.2167 0.093297 0.528991 -3.020363
2011-03-03 04:47:10 51°13.663 2°55.958 12.2153 0.093297 0.528991 -3.020363
2011-03-03 04:47:15 51°13.663 2°55.958 12.2177 0.093297 0.528991 -3.020363
2011-03-03 04:47:20 51°13.662 2°55.957 12.219 0.093297 0.528991 -3.020363
2011-03-03 04:47:25 51°13.662 2°55.957 12.2182 0.093297 0.528991 -3.020363
2011-03-03 04:47:30 51°13.662 2°55.957 12.2194 0.093194 0.528385 -3.020363
2011-03-03 04:47:35 51°13.662 2°55.957 12.221 0.093297 0.528981 -3.020363
2011-03-03 04:47:40 51°13.662 2°55.957 12.2209 0.093297 0.528981 -3.020363
2011-03-03 04:47:45 51°13.662 2°55.958 12.2209 0.093297 0.528981 -3.020363
2011-03-03 04:47:50 51°13.662 2°55.958 12.2197 0.093297 0.528981 -3.020363
2011-03-03 04:47:55 51°13.662 2°55.958 12.2191 0.093297 0.528991 -3.020363
2011-03-03 04:48:00 51°13.662 2°55.958 12.2175 0.093297 0.528981 -3.020363
2011-03-03 04:48:05 51°13.662 2°55.958 12.2159 0.093297 0.528981 -3.020363
2011-03-03 04:48:10 51°13.662 2°55.958 12.2165 0.093194 0.528375 -3.020363
2011-03-03 04:48:15 51°13.662 2°55.958 12.2176 0.093194 0.528375 -3.020363
2011-03-03 04:48:20 51°13.662 2°55.958 12.2176 0.093297 0.528981 -3.020363
2011-03-03 04:48:25 51°13.662 2°55.958 12.2163 0.093297 0.528981 -3.020363
2011-03-03 04:48:30 51°13.662 2°55.958 12.2159 0.093297 0.528981 -3.020363
2011-03-03 04:48:35 51°13.662 2°55.958 12.2163 0.093297 0.528981 -3.020363
2011-03-03 04:48:40 51°13.662 2°55.958 12.2163 0.093297 0.528981 -3.020363
2011-03-03 04:48:45 51°13.663 2°55.958 12.2159 0.093297 0.528981 -3.020363
2011-03-03 04:48:50 51°13.662 2°55.959 12.214 0.093297 0.528981 -3.020363
2011-03-03 04:48:55 51°13.662 2°55.959 12.2139 0.093297 0.528981 -3.020363
2011-03-03 04:49:00 51°13.662 2°55.959 12.2126 0.093297 0.528971 -3.020363
2011-03-03 04:49:05 51°13.662 2°55.958 12.2133 0.093194 0.528375 -3.020363
2011-03-03 04:49:10 51°13.662 2°55.958 12.2137 0.093297 0.528971 -3.020363
2011-03-03 04:49:15 51°13.662 2°55.958 12.213 0.093297 0.528971 -3.020363
2011-03-03 04:49:20 51°13.662 2°55.958 12.2136 0.093297 0.528971 -3.020363
2011-03-03 04:49:25 51°13.662 2°55.958 12.2137 0.093297 0.528981 -3.020363
2011-03-03 04:49:30 51°13.662 2°55.958 12.2128 0.093297 0.528971 -3.020363
2011-03-03 04:49:35 51°13.662 2°55.958 12.2151 0.093194 0.528365 -3.020363
2011-03-03 04:49:40 51°13.663 2°55.959 12.2162 0.093297 0.528971 -3.020363
2011-03-03 04:49:45 51°13.663 2°55.959 12.2191 0.093297 0.528971 -3.020363
2011-03-03 04:49:50 51°13.662 2°55.959 12.2191 0.093297 0.528971 -3.020363
2011-03-03 04:49:55 51°13.663 2°55.958 12.2198 0.093297 0.528971 -3.020363
2011-03-03 04:50:00 51°13.662 2°55.958 12.2198 0.093297 0.528971 -3.020363
2011-03-03 04:50:05 51°13.662 2°55.958 12.2184 0.093297 0.528971 -3.020363
2011-03-03 04:50:10 51°13.662 2°55.958 12.2179 0.093297 0.528981 -3.020363
2011-03-03 04:50:15 51°13.662 2°55.958 12.2166 0.093297 0.528981 -3.020363
2011-03-03 04:50:20 51°13.662 2°55.958 12.2169 0.093297 0.528981 -3.020363
2011-03-03 04:50:25 51°13.663 2°55.959 12.2174 0.093297 0.528981 -3.020363
2011-03-03 04:50:30 51°13.662 2°55.959 12.2175 0.093297 0.528971 -3.020363
2011-03-03 04:50:35 51°13.662 2°55.959 12.2175 0.093297 0.528971 -3.020363
2011-03-03 04:50:40 51°13.662 2°55.958 12.2159 0.093297 0.528971 -3.020363
2011-03-03 04:50:45 51°13.662 2°55.958 12.2178 0.093297 0.528971 -3.020363
2011-03-03 04:50:50 51°13.662 2°55.958 12.2167 0.093297 0.528962 -3.020363
2011-03-03 04:50:55 51°13.663 2°55.959 12.2168 0.093297 0.528962 -3.020363
2011-03-03 04:51:00 51°13.663 2°55.959 12.2158 0.093297 0.528971 -3.020363
2011-03-03 04:51:05 51°13.663 2°55.959 12.2149 0.093297 0.528971 -3.020363
2011-03-03 04:51:10 51°13.663 2°55.959 12.2162 0.093297 0.528962 -3.020363
2011-03-03 04:51:15 51°13.663 2°55.959 12.215 0.093297 0.528962 -3.020363
2011-03-03 04:51:20 51°13.663 2°55.959 12.2142 0.093297 0.528962 -3.020363
2011-03-03 04:51:25 51°13.663 2°55.959 12.2146 0.093297 0.528962 -3.020363
2011-03-03 04:51:30 51°13.663 2°55.959 12.2149 0.093297 0.528962 -3.020363
2011-03-03 04:51:35 51°13.663 2°55.959 12.2134 0.093297 0.528962 -3.020363
2011-03-03 04:51:40 51°13.663 2°55.96 12.2152 0.093194 0.528356 -3.020363
2011-03-03 04:51:45 51°13.663 2°55.959 12.2133 0.093194 0.528356 -3.020363
2011-03-03 04:51:50 51°13.663 2°55.959 12.2133 0.093297 0.528962 -3.020363
2011-03-03 04:51:55 51°13.663 2°55.959 12.2141 0.093297 0.528962 -3.020363
2011-03-03 04:52:00 51°13.663 2°55.959 12.2145 0.093297 0.528962 -3.020363
2011-03-03 04:52:05 51°13.663 2°55.959 12.2155 0.093297 0.528962 -3.020363
2011-03-03 04:52:10 51°13.663 2°55.96 12.2161 0.093297 0.528962 -3.020363
2011-03-03 04:52:15 51°13.663 2°55.96 12.2146 0.093297 0.528962 -3.020363
2011-03-03 04:52:20 51°13.662 2°55.959 12.214 0.093297 0.528962 -3.020363
2011-03-03 04:52:25 51°13.662 2°55.96 12.2136 0.093297 0.528962 -3.020363
2011-03-03 04:52:30 51°13.663 2°55.96 12.213 0.093297 0.528962 -3.020363
2011-03-03 04:52:35 51°13.663 2°55.96 12.2145 0.093297 0.528962 -3.020363
2011-03-03 04:52:40 51°13.663 2°55.96 12.2155 0.093297 0.528962 -3.020363
2011-03-03 04:52:45 51°13.662 2°55.96 12.2157 0.093297 0.528962 -3.020363
2011-03-03 04:52:50 51°13.662 2°55.96 12.2133 0.093297 0.528962 -3.020363
2011-03-03 04:52:55 51°13.662 2°55.96 12.2154 0.093297 0.528962 -3.020363
2011-03-03 04:53:00 51°13.662 2°55.96 12.2161 0.093297 0.528962 -3.020363
2011-03-03 04:53:05 51°13.662 2°55.961 12.2161 0.093297 0.528962 -3.020363
2011-03-03 04:53:10 51°13.662 2°55.961 12.2151 0.093297 0.528962 -3.020363
2011-03-03 04:53:15 51°13.662 2°55.96 12.2164 0.093297 0.528962 -3.020363
2011-03-03 04:53:20 51°13.662 2°55.961 12.2156 0.093297 0.528962 -3.020363
2011-03-03 04:53:25 51°13.662 2°55.961 12.2121 0.093297 0.528962 -3.020363
2011-03-03 04:53:30 51°13.662 2°55.961 12.2133 0.093297 0.528962 -3.020363
2011-03-03 04:53:35 51°13.662 2°55.961 12.2117 0.093297 0.528952 -3.020363
2011-03-03 04:53:40 51°13.662 2°55.961 12.2122 0.093297 0.528952 -3.020363
2011-03-03 04:53:45 51°13.662 2°55.961 12.2134 0.093297 0.528952 -3.020363
2011-03-03 04:53:50 51°13.662 2°55.961 12.2138 0.093297 0.528952 -3.020363
2011-03-03 04:53:55 51°13.662 2°55.961 12.2142 0.093297 0.528962 -3.020363
2011-03-03 04:54:00 51°13.662 2°55.961 12.2161 0.093297 0.528952 -3.020363
2011-03-03 04:54:05 51°13.661 2°55.961 12.2121 0.093297 0.528962 -3.020363
2011-03-03 04:54:10 51°13.661 2°55.961 12.2116 0.093297 0.528952 -3.020363
2011-03-03 04:54:15 51°13.661 2°55.961 12.2124 0.093297 0.528952 -3.020363
2011-03-03 04:54:20 51°13.661 2°55.961 12.2112 0.093297 0.528952 -3.020363
2011-03-03 04:54:25 51°13.661 2°55.961 12.2116 0.093297 0.528952 -3.020363
2011-03-03 04:54:30 51°13.661 2°55.961 12.2124 0.093297 0.528952 -3.020363
2011-03-03 04:54:35 51°13.661 2°55.961 12.2119 0.093297 0.528952 -3.020363
2011-03-03 04:54:40 51°13.661 2°55.961 12.2132 0.093297 0.528952 -3.020363
2011-03-03 04:54:45 51°13.661 2°55.961 12.2126 0.093297 0.528952 -3.020363
2011-03-03 04:54:50 51°13.661 2°55.961 12.2108 0.093297 0.528952 -3.020363
2011-03-03 04:54:55 51°13.661 2°55.961 12.2101 0.093297 0.528952 -3.020363
2011-03-03 04:55:00 51°13.661 2°55.961 12.21 0.093297 0.528952 -3.020363
2011-03-03 04:55:05 51°13.661 2°55.961 12.2116 0.093297 0.528952 -3.020363
2011-03-03 04:55:10 51°13.661 2°55.961 12.2107 0.093297 0.528952 -3.020363
2011-03-03 04:55:15 51°13.661 2°55.961 12.2113 0.093297 0.528952 -3.020363
2011-03-03 04:55:20 51°13.661 2°55.961 12.2107 0.093297 0.528952 -3.020363
2011-03-03 04:55:25 51°13.661 2°55.961 12.2116 0.093297 0.528952 -3.020363
2011-03-03 04:55:30 51°13.661 2°55.961 12.2124 0.093297 0.528952 -3.020363
2011-03-03 04:55:35 51°13.661 2°55.96 12.2122 0.093297 0.528952 -3.020363
2011-03-03 04:55:40 51°13.661 2°55.961 12.2123 0.093297 0.528952 -3.020363
2011-03-03 04:55:45 51°13.661 2°55.96 12.213 0.093297 0.528952 -3.020363
2011-03-03 04:55:50 51°13.661 2°55.96 12.2128 0.093297 0.528952 -3.020363
2011-03-03 04:55:55 51°13.661 2°55.96 12.2119 0.093297 0.528952 -3.020363
2011-03-03 04:56:00 51°13.661 2°55.96 12.211 0.093297 0.528952 -3.020363
2011-03-03 04:56:05 51°13.662 2°55.96 12.2103 0.093297 0.528952 -3.020363
2011-03-03 04:56:10 51°13.662 2°55.96 12.2109 0.093297 0.528952 -3.020363
2011-03-03 04:56:15 51°13.661 2°55.96 12.2083 0.093297 0.528952 -3.020363
2011-03-03 04:56:20 51°13.662 2°55.96 12.2087 0.093297 0.528952 -3.020363
2011-03-03 04:56:25 51°13.662 2°55.96 12.2079 0.093297 0.528952 -3.020363
2011-03-03 04:56:30 51°13.662 2°55.961 12.209 0.093297 0.528952 -3.020363
2011-03-03 04:56:35 51°13.662 2°55.961 12.2099 0.093297 0.528952 -3.020363
2011-03-03 04:56:40 51°13.662 2°55.96 12.2098 0.093297 0.528952 -3.020363
2011-03-03 04:56:45 51°13.662 2°55.96 12.212 0.093297 0.528952 -3.020363
2011-03-03 04:56:50 51°13.662 2°55.96 12.2113 0.093297 0.528952 -3.020363
2011-03-03 04:56:55 51°13.662 2°55.959 12.2098 0.093297 0.528952 -3.020363
2011-03-03 04:57:00 51°13.662 2°55.96 12.2107 0.093297 0.528952 -3.020363
2011-03-03 04:57:05 51°13.662 2°55.96 12.2108 0.093297 0.528952 -3.020363
2011-03-03 04:57:10 51°13.662 2°55.96 12.2109 0.093297 0.528952 -3.020363
2011-03-03 04:57:15 51°13.662 2°55.96 12.212 0.093297 0.528952 -3.020363
2011-03-03 04:57:20 51°13.662 2°55.959 12.2111 0.093297 0.528952 -3.020363
2011-03-03 04:57:25 51°13.662 2°55.96 12.2124 0.093297 0.528952 -3.020363
2011-03-03 04:57:30 51°13.662 2°55.96 12.2111 0.093297 0.528952 -3.020363
2011-03-03 04:57:35 51°13.662 2°55.96 12.2113 0.093297 0.528952 -3.020363
2011-03-03 04:57:40 51°13.662 2°55.959 12.2101 0.093297 0.528952 -3.020363
2011-03-03 04:57:45 51°13.662 2°55.96 12.2116 0.093297 0.528952 -3.020363
2011-03-03 04:57:50 51°13.662 2°55.96 12.2118 0.093297 0.528952 -3.020363
2011-03-03 04:57:55 51°13.662 2°55.96 12.213 0.093297 0.528952 -3.020363
2011-03-03 04:58:00 51°13.662 2°55.959 12.2116 0.093297 0.528952 -3.020363
2011-03-03 04:58:05 51°13.662 2°55.96 12.2114 0.093297 0.528952 -3.020363
2011-03-03 04:58:10 51°13.662 2°55.96 12.2108 0.093297 0.528952 -3.020363
2011-03-03 04:58:15 51°13.662 2°55.96 12.2106 0.093297 0.528952 -3.020363
2011-03-03 04:58:20 51°13.662 2°55.96 12.2112 0.093297 0.528952 -3.020363
2011-03-03 04:58:25 51°13.662 2°55.96 12.2116 0.093297 0.528952 -3.020363
2011-03-03 04:58:30 51°13.662 2°55.96 12.2104 0.093297 0.528952 -3.020363
2011-03-03 04:58:35 51°13.662 2°55.959 12.2108 0.093297 0.528952 -3.020363
2011-03-03 04:58:40 51°13.662 2°55.959 12.2109 0.093297 0.528952 -3.020363
2011-03-03 04:58:45 51°13.662 2°55.959 12.2097 0.093297 0.528952 -3.020363
2011-03-03 04:58:50 51°13.662 2°55.959 12.2105 0.093297 0.528952 -3.020363
2011-03-03 04:58:55 51°13.662 2°55.959 12.2104 0.093297 0.528952 -3.020363
2011-03-03 04:59:00 51°13.662 2°55.96 12.2093 0.093297 0.528952 -3.020363
2011-03-03 04:59:05 51°13.662 2°55.96 12.208 0.093297 0.528952 -3.020363
2011-03-03 04:59:10 51°13.662 2°55.96 12.2097 0.093297 0.528952 -3.020363
2011-03-03 04:59:15 51°13.662 2°55.96 12.2116 0.093297 0.528952 -3.020363
2011-03-03 04:59:20 51°13.662 2°55.96 12.2105 0.093297 0.528952 -3.020363
2011-03-03 04:59:25 51°13.662 2°55.96 12.21 0.093297 0.528952 -3.020363
2011-03-03 04:59:30 51°13.662 2°55.96 12.2117 0.093297 0.528952 -3.020363
2011-03-03 04:59:35 51°13.662 2°55.96 12.2111 0.093297 0.528952 -3.020363
2011-03-03 04:59:40 51°13.662 2°55.96 12.211 0.093297 0.528952 -3.020363
2011-03-03 04:59:45 51°13.662 2°55.961 12.2123 0.093297 0.528952 -3.020363
2011-03-03 04:59:50 51°13.662 2°55.961 12.2122 0.093297 0.528952 -3.020363
2011-03-03 04:59:55 51°13.662 2°55.961 12.2117 0.093297 0.528952 -3.020363
2011-03-03 05:00:00 51°13.662 2°55.961 12.2115 0.093297 0.528952 -3.020363
2011-03-03 05:00:05 51°13.662 2°55.96 12.2094 0.093297 0.528952 -3.020363
2011-03-03 05:00:10 51°13.662 2°55.96 12.2108 0.093297 0.528952 -3.020363
2011-03-03 05:00:15 51°13.662 2°55.96 12.2087 0.093297 0.528952 -3.020363
2011-03-03 05:00:20 51°13.662 2°55.96 12.2105 0.093297 0.528952 -3.020363
2011-03-03 05:00:25 51°13.662 2°55.961 12.2105 0.093297 0.528952 -3.020363
2011-03-03 05:00:30 51°13.662 2°55.961 12.2096 0.093297 0.528952 -3.020363
2011-03-03 05:00:35 51°13.662 2°55.961 12.2101 0.093297 0.528952 -3.020363
2011-03-03 05:00:40 51°13.662 2°55.961 12.21 0.093297 0.528952 -3.020363
2011-03-03 05:00:45 51°13.662 2°55.962 12.2101 0.093297 0.528952 -3.020363
2011-03-03 05:00:49 51°13.663 2°55.962 12.2094 0.093297 0.528952 -3.020363
2011-03-03 05:00:55 51°13.662 2°55.962 12.2084 0.093297 0.528952 -3.020363
2011-03-03 05:00:59 51°13.662 2°55.962 12.2085 0.093297 0.528952 -3.020363
2011-03-03 05:01:05 51°13.662 2°55.962 12.2097 0.093297 0.528952 -3.020363
2011-03-03 05:01:09 51°13.662 2°55.962 12.2082 0.093297 0.528952 -3.020363
2011-03-03 05:01:15 51°13.663 2°55.962 12.2104 0.093297 0.528952 -3.020363
2011-03-03 05:01:19 51°13.663 2°55.963 12.2101 0.093297 0.528952 -3.020363
2011-03-03 05:01:25 51°13.663 2°55.962 12.2112 0.093297 0.528952 -3.020363
2011-03-03 05:01:29 51°13.662 2°55.962 12.2097 0.093297 0.528942 -3.020363
2011-03-03 05:01:35 51°13.662 2°55.962 12.2093 0.093297 0.528942 -3.020363
2011-03-03 05:01:40 51°13.662 2°55.962 12.2088 0.093297 0.528952 -3.020363
2011-03-03 05:01:45 51°13.662 2°55.962 12.2104 0.093297 0.528952 -3.020363
2011-03-03 05:01:49 51°13.662 2°55.962 12.2081 0.093297 0.528952 -3.020363
2011-03-03 05:01:55 51°13.662 2°55.962 12.2082 0.093297 0.528942 -3.020363
2011-03-03 05:02:00 51°13.662 2°55.962 12.2072 0.093297 0.528942 -3.020363
2011-03-03 05:02:04 51°13.662 2°55.962 12.2084 0.093297 0.528942 -3.020363
2011-03-03 05:02:10 51°13.662 2°55.962 12.2077 0.093297 0.528942 -3.020363
2011-03-03 05:02:16 51°13.662 2°55.962 12.2072 0.093297 0.528942 -3.020363
2011-03-03 05:02:20 51°13.662 2°55.962 12.2058 0.093297 0.528942 -3.020363
2011-03-03 05:02:25 51°13.662 2°55.962 12.2054 0.093297 0.528952 -3.020363
2011-03-03 05:02:30 51°13.662 2°55.962 12.2047 0.093297 0.528942 -3.020363
2011-03-03 05:02:35 51°13.662 2°55.962 12.2043 0.093297 0.528942 -3.020363
2011-03-03 05:02:40 51°13.662 2°55.962 12.2052 0.093297 0.528942 -3.020363
2011-03-03 05:02:44 51°13.662 2°55.962 12.2051 0.093297 0.528942 -3.020363
2011-03-03 05:02:50 51°13.662 2°55.963 12.2059 0.093297 0.528942 -3.020363
2011-03-03 05:02:55 51°13.661 2°55.963 12.2073 0.093297 0.528942 -3.020363
2011-03-03 05:03:00 51°13.661 2°55.963 12.2076 0.093297 0.528942 -3.020363
2011-03-03 05:03:04 51°13.661 2°55.962 12.2095 0.093297 0.528942 -3.020363
2011-03-03 05:03:10 51°13.661 2°55.962 12.2099 0.093297 0.528942 -3.020363
2011-03-03 05:03:15 51°13.661 2°55.962 12.2104 0.093297 0.528942 -3.020363
2011-03-03 05:03:20 51°13.661 2°55.961 12.2126 0.093194 0.528336 -3.020363
2011-03-03 05:03:24 51°13.661 2°55.961 12.2131 0.093297 0.528942 -3.020363
2011-03-03 05:03:30 51°13.662 2°55.959 12.2142 0.093297 0.528942 -3.020363
2011-03-03 05:03:34 51°13.662 2°55.959 12.2141 0.093297 0.528942 -3.020363
2011-03-03 05:03:40 51°13.662 2°55.957 12.2128 0.093297 0.528942 -3.020363
2011-03-03 05:03:45 51°13.662 2°55.958 12.2135 0.093297 0.528942 -3.020363
2011-03-03 05:03:50 51°13.662 2°55.958 12.2137 0.093297 0.528942 -3.020363
2011-03-03 05:03:54 51°13.662 2°55.957 12.2143 0.093297 0.528942 -3.020363
2011-03-03 05:04:00 51°13.662 2°55.956 12.215 0.093194 0.528336 -3.020363
2011-03-03 05:04:05 51°13.662 2°55.955 12.2143 0.093297 0.528942 -3.020363
2011-03-03 05:04:10 51°13.662 2°55.955 12.2152 0.093297 0.528942 -3.020363
2011-03-03 05:04:14 51°13.662 2°55.955 12.2143 0.093297 0.528942 -3.020363
2011-03-03 05:04:20 51°13.662 2°55.956 12.2143 0.093297 0.528942 -3.020363
2011-03-03 05:04:25 51°13.662 2°55.956 12.2147 0.093297 0.528932 -3.020363
2011-03-03 05:04:30 51°13.661 2°55.957 12.2124 0.093297 0.528942 -3.020363
2011-03-03 05:04:35 51°13.661 2°55.957 12.213 0.093297 0.528932 -3.020363
2011-03-03 05:04:40 51°13.661 2°55.957 12.2108 0.093297 0.528942 -3.020363
2011-03-03 05:04:45 51°13.661 2°55.957 12.2086 0.093297 0.528942 -3.020363
2011-03-03 05:04:50 51°13.662 2°55.956 12.208 0.093297 0.528942 -3.020363
2011-03-03 05:04:54 51°13.662 2°55.956 12.2059 0.093297 0.528932 -3.020363
2011-03-03 05:04:59 51°13.662 2°55.955 12.2047 0.093297 0.528932 -3.020363
2011-03-03 05:05:05 51°13.662 2°55.955 12.204 0.093297 0.528942 -3.020363
2011-03-03 05:05:09 51°13.662 2°55.955 12.2034 0.093297 0.528932 -3.020363
2011-03-03 05:05:15 51°13.662 2°55.956 12.2015 0.093297 0.528932 -3.020363
2011-03-03 05:05:19 51°13.662 2°55.956 12.2018 0.093297 0.528942 -3.020363
2011-03-03 05:05:25 51°13.661 2°55.956 12.2038 0.093297 0.528942 -3.020363
2011-03-03 05:05:29 51°13.662 2°55.956 12.2039 0.093194 0.528336 -3.020363
2011-03-03 05:05:35 51°13.661 2°55.956 12.2038 0.093297 0.528942 -3.020363
2011-03-03 05:05:40 51°13.661 2°55.957 12.2035 0.093297 0.528932 -3.020363
2011-03-03 05:05:44 51°13.661 2°55.957 12.2046 0.093297 0.528932 -3.020363
2011-03-03 05:05:50 51°13.661 2°55.958 12.2043 0.093297 0.528932 -3.020363
2011-03-03 05:05:55 51°13.661 2°55.959 12.205 0.093297 0.528932 -3.020363
2011-03-03 05:06:00 51°13.66 2°55.959 12.2023 0.093297 0.528932 -3.020363
2011-03-03 05:06:04 51°13.66 2°55.959 12.202 0.093297 0.528932 -3.020363
2011-03-03 05:06:10 51°13.66 2°55.959 12.2023 0.093297 0.528923 -3.020363
2011-03-03 05:06:15 51°13.66 2°55.959 12.2034 0.093297 0.528923 -3.020363
2011-03-03 05:06:20 51°13.661 2°55.958 12.2047 0.093297 0.528923 -3.020363
2011-03-03 05:06:24 51°13.661 2°55.958 12.2054 0.093297 0.528932 -3.020363
2011-03-03 05:06:30 51°13.661 2°55.958 12.2072 0.093297 0.528932 -3.020363
2011-03-03 05:06:35 51°13.661 2°55.959 12.2074 0.093297 0.528932 -3.020363
2011-03-03 05:06:40 51°13.66 2°55.959 12.2077 0.093297 0.528932 -3.020363
2011-03-03 05:06:44 51°13.661 2°55.958 12.2062 0.093297 0.528932 -3.020363
2011-03-03 05:06:51 51°13.661 2°55.958 12.2063 0.093297 0.528923 -3.020363
2011-03-03 05:06:55 51°13.661 2°55.956 12.2064 0.093297 0.528932 -3.020363
2011-03-03 05:07:00 51°13.661 2°55.954 12.2057 0.093297 0.528932 -3.020363
2011-03-03 05:07:04 51°13.661 2°55.955 12.2062 0.093297 0.528923 -3.020363
2011-03-03 05:07:10 51°13.661 2°55.956 12.2051 0.093297 0.528923 -3.020363